GFSMA_250_spd_000.txt.gz
Wind_Speed
22 23 26 29 32 31 34 37 42 44 47 48 51 53 55 58 63 62 63 64 65 68 71 69 74 76 73 73 74 73 74 71 72 68 67 71 71 69 65 65 65 67 65
26 28 31 34 36 39 42 46 50 53 55 55 56 57 61 63 66 62 68 69 71 75 77 77 80 80 78 75 75 72 71 71 71 69 69 74 69 69 67 65 68 68 66
30 34 38 41 43 46 49 51 53 56 51 54 56 56 60 62 69 69 73 74 76 78 77 76 77 80 82 82 80 76 71 72 69 68 67 68 71 70 60 67 68 74 75
35 39 42 45 48 51 53 54 54 54 57 58 59 61 65 67 69 75 75 75 73 78 80 81 84 86 86 85 83 81 79 69 67 68 68 68 72 70 65 67 66 71 77
39 43 45 48 48 49 53 55 55 56 59 61 62 65 68 75 75 75 75 73 77 78 77 77 79 80 80 82 83 81 79 76 72 66 70 69 74 69 70 70 65 72 76
43 46 47 47 51 54 54 60 62 64 67 66 70 74 76 78 79 77 72 72 68 71 75 78 80 81 85 84 86 85 80 76 77 73 69 69 72 69 71 68 70 71 75
42 44 48 53 55 57 59 63 67 69 73 76 78 79 76 75 78 67 67 68 74 76 77 78 81 85 88 84 90 88 81 77 75 73 72 73 75 68 71 72 71 75 76
45 48 52 57 60 59 63 65 67 70 74 78 81 81 77 73 69 69 69 74 79 79 79 83 83 84 86 93 92 89 83 71 74 73 74 79 75 69 73 74 74 74 76
50 54 59 62 61 64 68 72 76 80 81 84 84 78 72 62 64 71 73 77 79 81 83 85 85 88 89 94 94 90 81 68 66 70 77 74 69 72 75 76 76 74 76
58 60 63 63 64 67 73 76 77 83 86 89 85 72 64 66 70 68 72 76 78 82 86 89 88 92 95 94 95 92 77 68 68 71 76 76 70 74 73 73 75 76 77
66 71 69 71 73 76 80 81 85 86 88 87 77 65 65 72 73 72 70 76 79 83 87 89 94 96 98 96 96 91 77 68 68 74 74 73 75 77 79 77 78 74 79
70 74 78 81 82 82 84 86 90 85 87 77 67 66 68 70 73 74 75 80 80 84 87 93 97 99 103 101 96 90 76 66 67 70 70 71 78 79 76 75 71 77 78
77 80 81 82 83 86 87 88 92 94 82 71 69 72 74 74 75 75 80 83 83 87 89 95 99 102 103 103 100 88 77 64 64 66 69 69 73 75 71 67 70 74 78
81 85 86 87 88 91 90 94 94 90 79 72 69 73 73 77 77 80 84 86 85 87 89 95 99 104 107 106 103 90 75 61 61 61 63 69 73 65 66 68 70 75 76
86 90 92 93 92 93 94 96 93 90 79 76 73 72 74 77 80 83 86 90 92 91 91 95 99 103 108 106 106 96 79 62 61 61 66 70 68 65 67 68 73 77 76
91 92 93 96 98 99 98 100 93 92 83 79 75 76 75 76 80 86 91 94 97 101 97 101 103 104 105 109 108 96 80 59 58 59 65 66 66 64 66 74 76 74 76
96 98 98 102 106 109 105 104 98 88 84 80 78 78 80 82 84 89 96 101 103 106 105 100 107 107 106 105 103 96 82 65 58 60 66 70 69 70 75 75 70 74 80
104 105 109 110 112 112 107 98 94 84 84 82 81 83 85 87 90 95 101 105 108 109 111 106 109 109 106 104 98 89 80 65 57 58 63 66 73 76 77 68 71 76 85
110 111 114 116 118 116 107 98 90 86 85 86 86 86 89 92 94 98 103 109 113 113 116 112 106 110 104 101 92 82 75 65 58 59 60 68 73 74 74 72 76 80 90
115 118 114 107 101 101 99 96 92 91 88 89 92 96 96 99 101 103 106 109 115 118 120 115 113 109 101 92 81 74 72 64 59 57 59 69 72 74 76 79 79 88 91
118 110 103 99 94 91 95 98 97 95 96 98 101 105 107 108 109 111 112 111 117 118 117 115 109 105 98 84 71 68 70 65 59 54 58 70 74 77 79 83 82 92 94
99 100 98 99 101 105 104 105 104 102 105 108 109 112 114 116 118 117 118 118 117 113 111 108 100 99 86 76 64 65 67 62 58 58 60 67 76 75 80 82 87 95 96
110 110 111 113 112 115 116 117 117 115 115 116 118 119 120 122 124 123 119 114 113 105 101 103 96 89 78 66 61 62 63 61 58 60 65 70 75 78 79 82 92 98 101
122 121 120 123 123 123 125 123 122 122 122 123 123 122 123 122 122 121 116 109 102 102 100 93 89 79 67 57 51 60 59 59 57 62 67 75 76 77 80 90 96 100 102
128 130 130 130 130 130 128 126 126 125 124 122 122 122 120 116 112 109 106 103 101 98 87 82 76 63 58 58 57 55 57 54 62 63 71 75 75 80 84 90 97 100 103
129 128 128 129 129 128 130 131 131 125 121 115 112 112 114 115 107 101 98 93 87 76 75 73 63 54 56 54 52 51 52 54 63 67 73 75 79 79 84 93 99 103 106

GFSMA_250_spd_003.txt.gz
Wind_Speed
34 28 28 29 31 34 35 38 40 44 47 50 51 54 52 58 57 61 63 66 69 72 74 73 72 75 71 68 66 67 69 71 73 72 69 68 66 65 55 57 60 60 60
28 29 31 33 34 38 42 44 45 49 50 51 52 54 57 60 62 64 65 69 73 73 74 74 69 66 63 65 66 67 70 72 69 71 75 74 70 71 63 56 60 61 59
30 30 34 36 39 42 45 46 47 48 50 53 51 55 60 62 67 67 71 76 75 73 71 70 60 60 68 68 69 70 70 72 71 73 77 75 73 69 69 60 66 62 60
32 35 39 42 45 46 47 48 46 49 53 54 59 60 65 68 71 73 77 78 78 74 67 60 60 62 66 66 68 70 71 73 76 76 80 77 74 70 70 68 66 63 63
37 41 44 47 48 50 49 48 52 56 58 58 60 65 67 71 75 76 78 77 73 68 61 59 62 66 66 67 69 71 72 76 79 82 86 83 78 70 68 68 67 65 65
41 44 46 48 50 50 53 55 57 61 62 62 63 68 74 76 79 84 78 75 66 59 61 61 66 67 68 71 72 73 76 80 82 84 87 88 82 71 64 64 65 65 67
43 45 47 49 51 53 56 59 62 66 67 68 70 75 78 82 82 83 80 68 63 59 60 64 66 68 72 73 76 79 80 82 83 85 89 91 84 71 61 58 62 64 68
46 49 52 55 57 58 63 65 70 70 75 77 79 80 80 81 82 87 76 63 60 62 64 66 67 69 71 74 81 82 83 87 87 88 92 91 85 71 63 61 62 66 68
52 55 58 61 60 62 66 69 72 75 76 80 83 83 80 77 82 85 73 66 62 64 70 72 70 72 75 77 79 83 86 88 91 92 92 93 89 75 66 63 67 69 71
61 62 62 64 64 63 67 69 73 77 81 80 82 84 82 83 82 80 78 73 68 71 71 72 74 76 77 78 83 87 90 91 94 95 94 94 91 76 68 65 68 71 68
66 67 69 68 65 66 69 73 77 80 83 81 83 86 86 89 90 87 74 74 71 72 72 75 77 76 77 79 83 87 90 93 97 98 97 96 93 77 68 70 68 67 66
69 71 70 70 77 79 83 82 83 85 87 87 84 88 93 94 91 93 83 73 72 73 75 78 76 80 82 84 86 90 95 97 99 101 98 98 93 80 71 69 63 60 57
74 76 76 78 82 83 87 88 87 90 91 95 96 97 102 101 99 95 88 82 76 76 75 78 81 84 85 87 90 93 95 99 103 102 100 98 91 80 71 66 61 58 59
81 83 85 88 89 91 92 94 97 100 101 102 101 102 107 109 103 96 87 81 78 79 77 79 86 88 89 92 95 98 97 99 102 105 101 96 89 79 68 63 56 57 57
88 90 93 93 95 98 97 101 105 106 106 105 104 106 110 106 96 90 86 82 84 79 77 82 83 91 91 93 99 103 103 101 103 104 101 93 85 75 66 60 60 58 57
93 94 97 98 99 103 109 111 112 112 109 109 113 113 107 98 95 87 84 84 88 86 78 83 84 91 93 94 97 104 105 106 106 103 99 91 82 70 66 64 59 54 56
101 103 104 107 110 112 114 121 116 113 111 114 116 101 90 88 86 83 86 86 88 91 91 82 89 94 97 98 99 103 107 107 106 105 100 93 80 70 62 61 57 54 56
111 114 116 116 119 122 122 122 121 117 115 112 105 89 80 77 81 83 84 86 90 95 100 97 95 101 102 105 107 108 109 105 104 100 95 89 78 69 62 62 58 53 59
121 123 124 125 124 123 121 118 116 111 112 104 91 93 94 93 88 87 88 89 93 96 101 104 101 105 105 106 111 113 111 103 100 95 91 83 74 68 63 62 61 55 59
126 126 127 128 127 122 120 120 120 118 114 106 103 101 101 104 100 101 102 102 103 102 102 104 107 108 110 110 112 112 109 102 98 92 81 73 73 68 63 62 67 62 64
127 126 125 127 129 129 130 129 127 123 119 117 114 113 113 114 113 112 112 111 113 113 112 111 111 113 113 107 104 111 105 101 94 78 74 69 69 68 66 63 67 67 68
130 132 134 134 134 136 137 138 134 125 123 124 123 122 121 120 121 122 121 118 117 116 114 112 107 104 100 99 94 95 95 91 87 73 68 66 66 67 67 67 68 69 69
134 137 140 140 138 137 136 133 133 131 127 122 120 119 121 119 118 115 113 110 109 108 105 102 95 87 89 91 90 88 88 83 75 67 66 63 64 67 67 67 69 66 70
142 142 141 138 137 132 127 126 119 114 113 115 113 112 107 103 103 101 99 98 100 99 95 93 85 84 83 83 79 83 81 73 71 64 61 59 62 66 66 70 69 70 72
138 139 138 137 132 131 126 124 122 118 118 115 113 111 110 105 101 98 91 84 82 82 83 81 79 77 73 67 68 69 66 67 66 62 65 61 61 64 68 72 68 68 75
135 134 135 134 129 127 125 122 117 112 102 100 102 102 97 89 88 86 81 77 71 72 74 72 69 63 60 59 61 61 59 58 57 57 61 60 60 63 68 70 69 76 81

GFSMA_250_spd_006.txt.gz
Wind_Speed
43 39 38 35 30 34 38 37 39 41 43 45 49 50 51 55 58 59 63 65 70 72 71 72 76 74 73 67 58 56 56 55 57 57 59 59 62 64 66 67 67 69 63
39 39 33 32 33 38 39 41 43 45 46 46 49 51 54 57 59 62 65 67 70 74 76 79 79 75 70 61 55 53 57 57 57 57 61 64 64 67 70 70 73 73 68
36 33 34 36 38 41 43 45 48 50 49 49 50 52 57 62 66 66 66 70 76 80 80 78 77 72 65 57 57 55 57 59 59 60 65 66 68 70 71 73 76 76 74
32 34 37 40 43 46 49 51 51 51 53 51 54 59 62 65 66 68 73 77 78 77 76 78 75 68 63 60 57 58 61 61 63 65 67 67 72 74 76 77 77 79 77
36 38 41 45 47 50 52 53 53 52 55 58 59 62 64 67 70 72 76 77 77 76 76 76 75 67 61 60 60 61 60 62 65 67 67 69 71 74 78 80 80 80 79
39 42 45 48 49 50 54 55 56 60 61 63 64 65 67 68 72 75 78 77 78 76 77 77 76 73 70 64 64 65 62 66 66 67 68 71 74 77 81 82 82 82 80
45 47 50 52 53 53 55 58 62 65 68 65 66 65 65 71 75 78 77 79 81 76 78 82 80 79 76 74 70 67 67 69 70 69 72 72 76 80 83 84 86 86 84
52 54 55 57 58 60 61 64 66 68 71 73 68 71 71 76 82 82 85 84 86 86 88 88 87 86 79 75 74 71 71 73 72 73 75 77 79 83 86 87 89 91 88
58 60 61 63 64 66 68 70 72 74 74 75 77 79 80 79 82 87 87 90 92 92 91 91 92 90 82 80 77 77 76 76 74 76 79 82 83 85 89 89 92 91 89
63 64 65 66 70 74 76 75 76 77 79 79 83 89 91 89 88 84 91 96 97 97 95 95 94 90 86 84 81 79 81 81 80 79 82 84 84 87 91 92 94 93 91
68 69 71 73 75 78 80 79 82 82 85 85 91 94 94 95 96 96 95 98 102 102 99 99 101 93 88 88 84 81 81 83 83 84 84 85 84 87 92 93 96 98 93
74 75 78 80 82 84 82 86 88 90 91 93 95 96 98 99 98 103 104 103 104 105 104 106 106 95 88 89 87 85 86 85 85 86 86 87 86 89 94 97 97 96 92
80 83 84 85 86 87 90 92 94 97 99 100 99 101 102 101 109 109 112 113 110 105 106 112 103 89 86 88 88 87 86 86 86 87 89 89 90 91 96 100 99 97 91
84 86 88 90 93 95 97 99 101 103 106 108 109 108 112 114 114 117 120 118 114 114 106 95 86 82 83 84 87 87 89 88 89 88 90 92 92 95 97 101 102 99 92
89 92 95 97 100 103 104 106 108 110 110 111 114 117 118 120 122 122 123 123 119 106 96 88 77 77 80 82 85 90 90 90 90 90 92 94 95 95 97 103 104 99 91
98 102 104 105 106 109 110 112 113 115 118 119 119 120 123 123 122 121 119 105 102 102 95 85 80 80 83 84 85 87 89 91 93 96 97 97 96 98 99 103 104 99 87
104 107 109 112 115 117 120 122 124 126 127 126 127 126 120 118 112 109 112 106 110 106 103 85 90 90 93 94 93 95 97 97 98 98 100 102 103 102 102 101 99 93 79
113 116 120 123 125 127 129 131 132 133 130 126 125 124 123 121 122 122 117 114 112 109 108 97 97 98 101 102 101 101 105 105 105 105 108 104 105 108 105 101 93 84 72
121 125 127 129 130 131 132 135 135 133 131 132 133 131 130 129 127 127 123 116 116 114 111 109 103 106 106 108 107 107 108 111 109 108 108 107 106 104 102 96 87 75 69
128 129 131 133 134 134 136 137 138 138 137 135 133 132 131 128 121 119 114 111 106 104 105 104 103 98 106 110 110 105 103 105 104 108 104 106 103 101 96 89 76 71 67
131 134 136 137 137 141 143 140 139 135 134 133 126 123 124 118 117 113 104 100 94 93 92 92 92 91 91 95 99 100 96 95 92 94 94 103 97 87 80 79 70 65 64
139 142 143 143 144 145 144 141 136 128 129 128 127 128 122 117 113 105 102 99 95 91 91 92 88 86 88 87 88 87 87 88 81 85 89 89 89 81 77 74 68 65 67
144 148 147 145 143 142 140 138 137 129 128 125 123 116 109 106 101 97 92 90 88 87 85 83 79 78 78 81 83 82 82 82 80 78 80 83 82 74 72 70 67 65 64
143 141 140 137 139 136 130 127 126 120 112 106 99 98 91 89 89 88 85 81 79 78 81 77 73 69 73 72 73 76 76 77 76 73 76 77 72 68 72 71 69 64 62
141 138 132 124 122 118 115 113 108 103 98 93 88 89 87 83 82 77 72 68 66 68 70 69 70 68 64 64 65 64 67 69 65 66 69 68 58 63 70 70 70 68 68
127 118 111 109 105 102 101 97 92 86 81 79 79 81 80 79 75 73 67 63 56 60 62 61 57 56 56 57 55 55 57 55 53 57 55 52 54 57 66 68 70 68 65

GFSMA_250_spd_009.txt.gz
Wind_Speed
40 41 45 46 44 41 37 34 34 37 41 44 46 47 49 50 53 55 57 61 63 64 69 68 71 71 71 70 68 67 68 67 59 55 57 55 54 53 53 54 55 56 58
42 46 47 45 43 38 36 37 39 42 45 48 49 51 52 52 55 56 62 64 66 70 68 68 70 72 70 69 64 66 68 70 65 62 59 58 56 56 56 57 57 58 60
45 48 45 43 39 39 40 41 45 47 51 53 54 54 53 55 58 62 66 67 71 68 70 72 74 73 75 76 76 76 72 70 72 70 66 65 63 59 61 61 63 65 65
44 45 45 42 41 42 45 48 50 53 54 55 55 55 56 59 63 68 69 70 70 70 73 76 78 78 79 78 80 79 77 74 75 74 68 68 68 64 63 65 67 68 71
46 45 45 43 44 47 50 52 55 55 57 58 56 58 62 65 69 71 73 75 73 75 79 81 80 82 82 83 84 83 82 82 79 75 74 71 69 69 68 69 70 72 75
48 46 48 48 49 52 55 56 58 62 64 64 63 64 67 70 73 75 76 76 78 81 85 86 86 86 86 86 87 86 87 82 82 82 77 77 75 73 72 72 74 76 79
50 48 50 53 54 56 59 62 64 66 70 72 71 73 73 77 77 80 79 80 83 88 90 92 91 92 92 91 92 92 94 94 90 89 82 81 79 76 74 75 77 80 81
52 51 53 56 60 62 65 69 70 71 71 75 77 78 78 80 84 85 85 87 87 90 93 95 95 95 94 95 98 98 101 100 96 97 92 86 82 80 77 76 78 81 83
56 57 59 62 64 67 71 74 76 76 77 81 83 85 85 83 83 88 93 96 97 98 99 100 99 100 98 101 102 103 107 106 103 103 95 86 84 81 79 77 78 81 85
60 63 65 68 71 73 77 80 82 83 86 86 91 93 94 93 90 91 93 99 106 104 103 103 103 103 106 109 107 107 112 111 109 99 87 83 84 82 81 81 80 82 85
65 67 70 73 77 81 83 86 89 91 93 95 97 98 98 99 101 102 98 99 104 108 109 108 110 112 113 113 112 112 113 105 100 90 81 77 81 82 82 82 82 83 86
70 73 77 81 84 87 90 92 94 96 97 99 100 103 105 107 109 110 111 110 110 106 111 112 114 117 116 116 116 111 95 90 88 89 81 77 76 77 79 80 82 83 85
77 81 83 87 91 93 94 96 98 101 104 106 109 112 114 115 116 117 118 115 116 114 114 116 118 120 122 120 112 101 90 97 93 88 85 79 77 76 79 80 81 82 83
84 87 90 93 95 98 100 103 105 107 108 109 111 114 116 119 123 125 126 127 125 125 123 122 125 127 123 113 110 106 99 97 99 92 90 89 85 84 83 82 82 81 81
89 92 96 98 102 105 109 111 112 113 116 118 120 122 124 126 129 130 131 133 134 128 123 122 120 115 116 115 111 111 112 106 104 101 101 98 96 96 92 93 90 88 88
95 98 102 106 110 113 116 120 122 125 125 128 131 133 134 135 134 133 133 133 133 133 126 117 117 118 116 116 114 113 112 113 111 105 106 106 105 101 98 98 97 95 96
105 108 111 114 118 122 126 129 133 135 137 137 140 140 138 138 136 137 137 135 132 129 125 113 114 113 116 117 117 118 115 110 109 109 108 109 109 106 102 101 100 97 98
111 115 119 124 127 131 133 136 137 140 140 140 141 141 143 138 134 129 126 125 124 123 116 104 107 110 111 112 107 107 106 103 103 104 106 107 108 106 104 101 100 100 99
115 119 121 125 129 132 137 141 144 144 146 149 146 140 138 138 138 135 131 125 121 112 110 104 98 100 105 110 104 102 101 100 98 98 100 99 103 102 99 101 100 97 97
120 122 127 132 136 139 145 147 150 150 145 144 143 142 140 138 129 123 121 113 110 104 99 98 91 86 91 92 92 91 90 93 91 93 95 94 97 96 94 96 96 96 96
123 127 132 136 139 143 149 150 149 148 145 141 138 128 125 120 114 109 105 102 98 92 87 89 85 83 81 82 82 85 84 88 88 87 89 90 90 85 86 90 92 93 94
126 128 130 136 141 143 147 143 143 139 130 122 115 113 109 108 103 99 96 91 83 81 80 79 76 75 75 76 78 77 78 81 80 85 86 83 86 82 80 82 85 85 84
130 131 133 137 137 140 141 132 125 120 110 106 104 100 97 96 95 93 87 83 78 76 73 71 70 71 70 76 77 77 77 74 72 74 77 76 79 77 76 75 76 77 73
131 131 133 141 135 127 122 117 110 105 101 98 93 91 89 87 86 85 80 78 78 75 75 70 63 63 68 70 70 69 69 68 66 69 73 68 74 72 71 69 72 70 66
130 134 133 124 117 117 112 108 101 96 93 90 88 88 85 81 79 77 72 68 67 68 69 64 58 57 58 63 66 63 61 58 58 64 68 66 67 66 68 65 69 66 65
133 120 118 115 111 107 102 96 94 91 86 83 80 81 82 78 73 70 67 62 60 61 64 63 59 54 50 51 52 52 53 50 50 56 62 56 57 59 60 62 62 56 58

GFSMA_250_spd_012.txt.gz
Wind_Speed
43 44 44 45 47 48 49 47 42 39 37 38 39 41 44 48 50 53 55 54 54 56 59 62 65 65 68 67 66 67 70 70 70 71 70 69 66 64 63 60 63 66 65
42 41 44 47 49 49 50 46 45 40 41 41 43 46 49 52 55 58 58 58 58 62 64 67 68 68 70 70 71 72 75 76 76 75 75 75 73 70 68 68 65 65 69
42 43 48 49 49 52 50 48 45 44 45 46 49 52 54 57 58 59 60 61 63 65 67 72 72 72 73 75 78 78 80 80 80 81 81 80 79 76 76 76 75 73 70
45 47 50 52 52 53 53 50 47 48 50 51 53 55 57 59 62 65 68 68 69 71 73 74 75 76 77 77 79 82 85 85 85 85 85 83 81 81 79 81 80 78 77
48 50 53 55 55 55 55 54 52 52 55 58 57 59 62 65 68 70 73 75 76 78 80 81 80 80 81 82 85 85 85 87 88 89 88 86 85 86 86 84 87 84 81
50 52 55 57 59 56 58 57 57 59 61 63 63 66 69 72 75 77 77 77 78 82 83 85 87 87 87 88 91 91 92 93 93 90 87 86 91 92 90 90 92 85 79
52 54 55 60 58 57 60 61 62 64 68 70 69 72 74 79 82 85 85 87 87 89 90 92 93 92 91 95 95 96 97 98 95 92 90 93 94 96 95 95 93 80 76
55 57 60 59 58 60 64 66 68 69 73 77 78 78 79 83 88 91 93 95 96 98 99 101 99 100 101 101 101 103 102 102 101 99 97 97 100 100 100 97 81 74 74
59 59 58 59 60 64 68 71 73 76 78 82 86 88 88 87 89 92 95 98 100 101 103 104 106 107 107 109 110 111 110 108 106 104 102 103 104 105 103 90 74 74 75
55 57 59 62 66 70 73 75 78 82 84 86 91 95 96 97 96 92 94 96 100 104 109 112 112 112 112 112 111 111 112 113 114 114 110 108 105 104 96 87 77 77 76
61 63 66 69 72 75 79 82 87 90 92 95 97 100 103 105 107 109 103 105 106 107 110 114 119 120 120 120 118 117 119 120 120 122 118 116 111 107 96 85 82 79 77
64 67 71 74 78 81 84 87 91 95 99 102 105 108 111 113 115 120 120 116 115 114 117 117 120 124 127 128 128 128 129 129 127 126 126 121 112 106 93 90 88 88 85
70 74 77 81 84 87 91 94 98 102 105 107 110 113 117 120 123 125 127 126 125 124 125 126 130 131 132 134 135 136 135 133 131 128 123 122 114 106 101 96 92 90 89
75 78 83 87 92 96 99 103 106 110 114 117 119 123 125 127 131 133 136 138 135 134 131 127 129 129 129 131 132 134 133 133 132 130 128 126 121 115 110 104 98 93 92
80 85 89 93 98 103 108 110 113 116 121 125 128 132 135 136 138 140 141 142 144 143 135 130 122 120 117 120 125 129 129 126 129 131 131 125 123 116 114 112 105 101 99
88 92 97 102 107 110 113 117 121 124 127 129 132 133 137 141 143 145 149 150 148 140 121 115 119 122 122 123 121 122 121 122 120 118 120 124 120 115 112 110 111 108 103
95 100 104 107 110 112 115 115 120 124 128 135 139 142 145 147 149 149 147 145 144 144 135 121 114 112 104 105 104 104 106 106 107 108 110 110 110 107 106 104 102 105 104
101 101 105 106 108 112 118 122 125 130 134 137 140 146 146 144 145 146 143 141 139 132 119 105 102 100 96 94 89 92 94 96 94 96 97 97 101 101 97 96 96 96 96
103 102 103 110 115 121 125 129 134 136 139 145 148 145 143 143 140 134 128 125 120 114 112 103 92 93 91 92 87 87 86 87 88 91 92 94 95 96 95 93 91 87 88
99 105 113 119 123 125 128 134 138 143 143 139 144 142 135 130 124 121 118 115 106 101 101 98 92 87 86 89 89 84 83 84 83 84 85 86 88 90 92 89 87 86 84
106 113 115 118 123 128 133 137 138 143 142 138 135 128 123 120 117 111 106 102 97 93 92 90 86 80 78 80 82 82 76 77 78 79 79 80 80 81 81 85 83 80 78
111 115 120 123 127 133 135 138 142 143 137 128 121 119 116 112 106 101 100 97 93 89 85 83 77 74 74 75 77 76 74 72 70 73 71 71 74 75 75 77 76 77 74
115 122 126 127 130 136 140 140 137 131 123 117 111 106 100 99 99 97 93 89 84 83 78 74 70 68 67 70 68 69 71 70 72 73 68 67 69 69 72 72 73 70 69
122 127 129 133 134 138 136 132 125 119 112 106 102 99 95 91 90 88 84 81 81 79 78 75 69 59 61 63 63 63 64 63 64 69 67 62 64 62 67 68 67 65 65
131 131 129 135 135 132 126 121 116 108 103 100 98 94 90 87 87 83 78 72 71 74 73 73 68 63 53 56 58 56 56 53 57 61 64 57 63 58 58 61 60 60 59
130 127 129 131 128 121 117 112 106 101 98 95 92 89 87 85 82 79 75 70 65 64 65 65 61 55 52 50 49 47 49 49 51 54 55 50 53 53 53 53 53 54 56

GFSMA_250_spd_015.txt.gz
Wind_Speed
46 50 48 51 50 48 49 48 48 50 50 48 46 42 40 41 43 46 49 52 54 56 58 57 57 58 59 61 63 65 66 67 68 68 70 69 68 71 71 69 71 72 70
47 50 47 46 48 50 50 50 50 52 53 49 46 43 43 45 47 49 51 54 55 56 59 62 64 64 67 69 71 72 73 73 72 72 72 73 73 74 73 71 72 72 72
45 44 48 50 51 49 53 54 54 54 55 53 51 48 49 50 52 54 56 58 61 62 64 67 69 72 74 76 77 78 79 78 78 77 78 79 78 79 79 78 77 74 72
45 47 50 51 52 53 54 57 57 56 58 56 55 55 55 57 59 61 64 65 66 69 72 73 75 77 79 81 81 81 81 83 84 84 83 82 82 83 83 83 81 80 76
42 44 48 51 51 53 56 56 59 58 60 57 56 60 62 64 67 69 71 73 74 76 78 80 84 84 84 85 87 87 87 88 88 88 88 87 89 88 88 89 86 83 81
42 45 48 50 55 58 59 59 60 61 59 58 60 63 66 70 73 76 78 79 81 84 85 87 89 90 91 91 91 91 92 92 93 93 94 95 95 95 93 91 88 86 85
43 46 50 54 57 58 60 63 62 60 61 61 62 66 70 73 76 80 84 86 89 92 92 93 95 96 98 100 100 100 99 100 100 101 102 103 102 99 97 95 93 92 92
47 50 53 56 60 62 62 61 60 62 66 70 71 73 74 77 82 85 88 90 93 97 99 101 103 104 105 107 108 110 110 109 109 109 108 107 106 105 104 103 102 100 98
51 55 56 54 55 58 61 63 65 67 69 75 79 81 81 82 84 88 92 97 101 104 107 110 112 114 115 115 116 116 116 117 117 115 114 112 112 110 110 108 107 107 104
54 53 55 58 61 63 65 68 71 74 76 79 84 90 92 93 93 89 96 101 104 107 110 113 116 119 123 125 126 125 125 124 124 125 125 122 119 117 117 115 114 112 110
53 56 60 63 66 68 71 73 77 80 83 86 90 94 98 104 109 110 102 107 111 114 116 118 120 122 125 129 131 132 132 130 131 130 131 129 125 120 119 117 114 112 111
58 61 64 67 69 71 75 79 83 86 90 95 99 102 106 109 114 118 120 117 118 119 121 124 126 128 131 132 132 133 136 135 134 133 133 134 135 131 127 122 121 117 114
61 65 67 70 73 77 81 85 90 95 99 102 107 112 116 119 122 125 129 128 127 124 125 125 131 131 133 134 134 136 138 137 138 138 136 135 137 135 133 127 122 119 114
67 71 73 77 82 86 90 94 97 102 106 110 114 115 116 120 125 130 135 140 138 135 131 132 135 137 136 137 137 138 140 140 140 139 140 141 135 134 131 133 129 126 115
72 76 80 84 89 92 96 100 104 107 109 110 110 115 122 127 133 139 143 145 149 146 136 132 132 136 135 135 134 133 132 131 131 133 131 131 128 122 116 118 122 121 113
78 81 85 89 94 98 102 105 107 106 107 111 115 122 130 136 140 142 146 151 152 148 134 129 126 120 117 114 113 113 110 110 109 109 111 110 111 106 102 101 103 104 105
82 87 91 95 100 104 105 104 105 108 113 118 124 130 136 143 146 149 153 150 149 144 128 107 108 105 103 101 102 99 99 99 98 96 98 98 98 99 98 96 94 93 93
89 92 97 100 102 101 104 105 110 112 117 124 131 138 142 146 149 150 146 137 129 122 116 99 97 96 92 92 90 92 89 90 90 90 90 89 89 88 88 86 85 84 86
94 97 100 100 102 104 106 111 115 121 126 133 140 143 146 145 144 142 132 117 115 110 104 93 81 87 85 84 82 82 83 81 79 80 80 83 83 83 80 79 77 78 77
97 99 101 102 103 108 113 116 123 128 136 141 144 144 143 140 132 120 117 112 105 101 98 92 83 78 78 80 77 76 75 74 75 75 75 75 74 72 73 74 73 74 73
100 101 101 103 110 114 120 128 130 134 138 141 144 143 137 125 119 115 107 101 98 95 91 86 79 74 73 73 74 72 66 69 71 71 69 69 66 63 65 66 68 70 69
101 101 103 107 116 123 127 130 135 135 142 142 139 131 122 116 113 106 102 96 92 88 85 82 78 76 73 70 69 66 64 61 62 68 61 64 60 59 60 62 63 63 62
98 103 110 116 122 125 133 135 137 143 142 136 126 118 115 111 105 99 95 94 93 92 87 81 75 73 68 67 61 60 59 59 58 65 58 61 59 56 57 58 58 57 56
107 111 117 120 126 132 133 136 138 138 132 124 117 114 109 103 99 93 91 91 90 90 87 82 73 65 61 61 55 54 56 55 54 59 57 57 57 52 51 52 52 51 50
115 121 122 125 130 134 136 139 138 130 121 114 111 107 102 97 92 90 88 85 82 80 76 68 62 59 54 52 51 51 50 47 50 53 50 52 53 48 46 46 46 46 45
118 122 122 129 134 138 138 136 129 120 112 107 103 100 97 91 89 86 79 73 69 68 64 60 51 49 48 45 46 45 44 44 47 46 42 46 47 44 44 43 40 38 40

GFSMA_250_spd_018.txt.gz
Wind_Speed
42 43 46 49 49 50 54 53 52 52 53 55 54 54 55 54 50 46 47 47 47 48 51 53 55 57 59 60 61 63 63 65 68 70 72 72 73 74 73 71 70 71 71
38 46 50 51 53 56 55 56 54 53 55 56 57 57 57 56 56 51 50 52 53 55 56 58 59 61 63 64 66 68 71 72 74 75 75 76 76 76 75 75 75 75 73
41 42 43 46 49 50 53 54 57 58 58 57 59 60 59 58 59 57 55 56 59 62 64 65 67 69 71 73 74 75 77 79 82 83 84 83 82 81 81 80 79 78 77
42 44 47 49 51 53 54 56 57 59 58 56 59 61 62 63 63 60 59 60 63 66 69 73 74 76 78 80 81 84 85 87 89 89 88 87 87 86 86 86 85 84 84
44 48 49 50 51 51 51 53 55 55 59 61 61 63 64 66 63 62 64 66 68 71 74 75 79 82 84 85 88 90 92 94 94 94 94 94 94 94 93 93 92 92 92
45 46 47 47 46 48 49 52 56 60 61 62 64 65 64 62 62 65 68 72 75 78 80 82 86 88 92 95 95 95 97 99 100 101 102 102 101 100 101 101 100 99 98
40 43 44 44 47 51 54 58 61 63 64 61 58 60 63 65 69 70 74 77 80 84 87 89 93 95 97 99 103 105 105 106 107 108 109 109 108 108 107 107 107 106 104
39 41 44 48 53 56 59 62 63 61 62 64 63 63 63 68 73 75 79 83 86 90 94 97 100 103 105 106 108 111 115 116 116 115 115 113 112 111 112 112 111 111 108
44 48 51 54 57 59 62 62 61 63 64 68 70 71 70 73 75 81 85 89 93 96 100 104 108 112 114 117 119 120 121 124 123 122 122 119 116 115 116 116 115 114 111
49 52 55 57 58 60 61 64 67 68 70 72 75 79 81 82 81 78 87 93 98 103 106 110 113 118 121 121 122 123 125 128 130 130 128 125 122 122 121 119 118 117 113
50 52 54 57 58 62 65 68 71 74 77 78 80 83 88 92 96 98 92 99 104 108 110 112 113 115 118 123 125 128 129 132 135 138 138 135 132 128 125 125 123 121 116
50 53 57 61 65 68 71 75 77 79 83 86 90 93 96 100 104 107 108 106 108 108 110 110 115 121 125 129 134 137 136 137 140 143 144 143 138 136 136 134 130 129 127
56 60 63 67 70 73 76 79 82 86 90 93 98 102 106 109 112 112 111 107 108 109 111 113 123 131 136 138 141 144 147 148 148 147 147 147 147 143 141 141 137 139 132
63 66 69 72 76 80 83 85 88 91 97 101 104 108 110 110 110 111 115 121 123 121 121 123 133 139 144 147 149 148 145 145 144 139 138 136 134 135 135 129 127 126 122
69 71 74 79 81 84 87 89 94 99 103 106 109 110 110 110 114 119 125 132 138 138 131 127 137 142 141 138 135 131 126 123 122 123 120 119 117 115 117 113 110 109 109
76 78 82 83 85 87 89 96 99 103 106 108 109 109 112 116 120 127 134 140 143 149 146 136 136 134 127 123 114 109 107 107 106 108 108 106 105 105 106 106 103 100 97
81 84 85 84 87 93 97 100 103 105 106 107 109 113 118 122 128 135 138 143 149 151 152 141 123 111 107 104 101 99 96 93 92 96 94 92 91 92 94 95 92 90 89
85 82 87 89 95 97 101 102 104 104 106 108 113 118 124 131 136 140 145 146 149 150 140 118 104 103 101 97 90 88 88 87 87 87 87 85 83 83 82 81 82 81 80
87 90 91 97 98 101 101 102 103 105 110 115 120 126 132 137 143 147 147 148 146 130 119 109 98 95 91 91 84 82 82 82 81 80 79 75 75 75 76 75 72 70 71
90 91 97 100 101 100 100 103 106 112 115 121 127 133 139 145 147 148 145 140 124 114 109 101 95 91 90 89 83 78 76 79 77 76 74 71 71 69 66 67 66 65 65
95 98 99 98 97 100 103 108 113 118 123 128 132 140 146 149 146 144 132 119 112 108 101 95 93 90 87 87 83 78 72 73 75 74 68 67 66 62 59 56 59 58 57
98 96 93 96 99 105 110 116 121 124 130 135 140 145 148 144 139 125 116 110 106 101 97 91 88 81 79 79 74 71 67 65 66 70 61 60 57 56 54 48 49 48 48
89 92 96 101 106 113 119 123 127 131 137 141 143 144 142 133 118 110 107 102 100 100 93 84 73 71 69 71 65 64 59 56 58 60 49 56 51 48 47 42 44 43 42
92 98 101 107 116 122 126 130 133 138 141 143 143 139 129 117 108 102 95 94 95 92 86 77 69 62 61 58 56 56 52 50 48 46 46 51 43 44 41 42 40 38 37
100 105 111 118 125 129 132 136 139 142 143 141 136 126 116 107 101 94 89 86 86 83 77 70 62 56 56 50 49 48 46 43 39 41 41 40 39 39 39 38 35 34 36
106 113 121 125 129 133 138 141 143 143 137 129 121 112 105 99 95 89 84 80 77 72 68 66 56 48 48 44 41 40 39 36 34 34 33 35 35 35 35 36 33 32 33

GFSMA_250_spd_021.txt.gz
Wind_Speed
34 33 34 40 43 44 52 51 51 53 55 56 57 60 59 58 58 58 58 58 57 56 53 52 52 53 54 56 58 60 61 63 65 65 67 68 69 69 70 71 73 74 73
34 33 36 38 48 48 49 54 58 57 59 62 63 63 64 62 62 61 59 60 61 61 59 56 56 58 59 61 62 64 67 70 72 73 75 75 76 76 77 78 79 78 76
34 35 36 39 41 48 52 56 60 64 64 61 62 62 62 64 63 61 63 65 64 64 65 61 59 61 63 65 67 69 71 73 76 78 79 80 80 82 82 83 83 83 83
35 36 39 42 45 49 50 52 55 58 59 58 60 61 61 61 63 65 67 67 66 65 63 63 63 65 67 69 72 75 77 80 81 83 84 85 85 86 88 89 89 90 90
36 38 41 44 46 50 52 56 56 57 59 57 56 58 61 64 67 69 68 66 64 63 64 65 67 70 73 76 78 79 81 84 87 88 90 92 93 93 94 96 97 96 96
37 38 41 43 46 49 52 54 55 53 52 54 57 61 65 68 67 65 64 67 67 68 70 72 74 77 81 83 86 87 88 91 93 96 98 100 101 102 101 101 102 104 104
38 38 40 42 44 46 47 48 51 54 59 61 62 65 67 67 67 68 69 70 72 75 77 79 81 83 87 89 92 96 99 101 101 102 104 107 109 109 109 110 109 108 105
41 40 41 43 45 47 50 53 56 61 64 67 67 67 66 69 73 74 74 76 78 80 83 87 90 92 94 97 101 104 108 110 112 113 110 111 113 113 112 110 107 105 104
46 47 48 49 52 54 57 60 63 64 65 69 71 69 70 72 73 78 80 83 86 89 91 95 99 103 106 109 112 113 115 114 118 119 117 116 114 114 113 113 113 112 111
45 47 50 52 55 57 59 61 62 65 66 69 73 77 79 80 80 77 83 87 91 95 97 101 105 109 112 114 115 115 116 118 118 118 121 121 121 120 120 120 120 120 117
47 49 50 54 57 60 62 64 67 70 74 76 78 81 83 87 90 89 84 92 94 100 103 106 110 113 115 115 118 118 120 122 122 124 125 128 132 132 131 130 130 129 128
51 55 58 62 64 66 69 71 75 77 79 82 85 88 90 92 93 94 97 100 101 104 108 110 113 116 117 118 120 123 127 130 133 134 135 138 142 146 146 144 143 140 137
58 60 62 65 69 72 75 78 80 83 85 89 92 93 94 96 102 105 108 108 107 104 103 106 111 116 121 127 130 134 136 138 143 144 145 144 146 147 147 145 144 143 141
61 65 67 69 73 77 80 84 87 89 91 93 93 96 99 106 109 111 113 114 106 106 106 110 116 122 130 136 140 143 145 145 144 146 147 148 144 131 128 126 124 121 119
67 69 72 75 79 80 84 88 88 90 92 94 99 100 105 108 109 110 111 117 122 117 112 115 122 129 136 143 146 147 145 142 138 134 128 121 116 109 107 105 104 103 101
75 75 78 81 83 85 88 86 89 92 97 98 102 105 106 106 108 113 117 121 127 135 133 128 132 136 139 138 136 131 124 117 109 106 104 104 102 100 96 93 94 94 93
77 81 82 83 84 85 87 90 94 97 100 104 105 101 104 110 113 117 122 127 132 138 141 136 137 138 135 123 115 108 102 98 96 95 93 95 94 93 90 86 85 86 84
82 84 84 83 85 90 92 94 99 103 103 98 100 106 111 115 120 125 129 133 138 142 142 141 134 124 112 105 98 94 91 89 89 90 92 89 89 89 86 82 80 80 79
84 84 83 86 89 92 97 99 101 98 97 103 108 112 116 122 126 131 135 139 140 141 143 131 110 103 96 96 88 85 85 86 86 87 84 80 79 80 82 77 74 73 71
83 84 86 90 94 97 99 98 95 99 104 110 114 120 125 130 134 138 140 141 142 134 123 111 99 93 89 89 83 83 83 85 83 81 74 72 73 74 74 73 69 69 66
84 88 91 94 98 98 95 98 102 106 111 117 122 127 132 137 140 141 141 138 127 117 107 99 92 87 84 83 81 82 77 76 77 72 62 65 63 64 67 68 64 63 60
88 91 95 96 95 97 100 104 109 115 121 126 130 134 138 141 142 140 130 122 113 103 97 90 86 81 80 79 78 75 70 66 68 61 53 64 51 54 58 57 55 55 51
94 95 95 95 99 103 106 113 119 125 130 133 137 138 140 141 134 120 114 105 100 97 92 84 78 76 72 73 69 68 64 58 56 56 52 48 42 47 45 46 47 47 47
93 93 96 101 103 109 117 123 128 132 136 139 142 142 135 124 116 108 98 93 92 92 87 82 75 71 66 63 61 58 54 53 47 46 43 37 37 36 39 40 40 41 43
92 98 102 106 111 119 127 131 134 137 140 143 140 130 119 110 103 96 89 86 86 85 82 76 70 64 61 57 52 51 46 43 40 38 36 32 30 30 32 32 35 38 40
98 103 108 115 121 127 132 136 139 142 140 134 123 115 107 98 94 89 85 80 77 77 74 72 66 58 53 50 46 44 40 36 34 34 32 26 26 26 27 29 32 34 37

GFSMA_250_spd_024.txt.gz
Wind_Speed
41 41 40 39 38 37 37 40 41 48 51 48 50 50 54 57 61 61 63 67 67 68 63 62 59 60 61 60 57 56 59 59 60 62 63 64 65 67 69 70 70 71 71
41 41 42 40 38 37 38 41 44 46 55 58 61 61 63 65 68 67 70 72 69 65 65 61 62 64 65 64 63 60 59 63 65 66 67 68 69 70 72 72 73 74 75
37 41 42 41 40 39 39 41 48 52 51 54 59 64 69 71 75 75 67 64 65 64 63 66 68 68 66 64 62 61 62 63 66 68 71 72 73 75 77 78 79 79 79
38 38 40 42 42 42 41 43 46 49 53 55 59 62 62 63 64 63 62 62 62 64 67 70 71 69 66 67 66 66 67 69 71 74 76 77 79 80 81 82 84 84 84
36 37 37 41 43 43 43 46 48 50 53 56 58 60 64 63 62 61 61 64 67 70 71 70 69 71 72 72 73 74 75 77 79 81 83 84 85 86 87 88 89 90 91
36 38 38 40 42 44 44 45 48 50 52 54 57 59 62 62 62 63 66 69 73 74 74 73 74 76 78 79 81 84 84 84 85 87 89 90 92 94 95 96 96 97 97
37 40 42 42 43 44 46 47 48 49 51 52 54 57 61 65 68 71 72 74 75 77 76 79 81 83 85 87 88 90 91 93 94 94 95 97 100 101 103 104 105 105 106
39 40 42 43 45 47 49 51 53 55 58 60 60 62 65 71 73 76 76 76 76 78 82 85 88 90 92 93 95 96 98 100 101 103 105 107 108 109 110 112 113 114 113
40 41 42 44 46 48 49 52 54 57 61 65 67 66 68 70 72 76 79 82 84 86 88 91 94 96 99 101 101 102 106 108 109 109 111 114 116 117 117 117 116 115 113
44 46 46 46 47 48 51 54 57 60 62 66 70 73 74 74 76 75 80 85 88 91 95 99 101 103 104 105 108 111 113 114 116 118 120 121 122 123 122 122 121 120 117
48 47 49 51 53 54 55 56 59 61 63 66 70 75 79 82 86 85 81 86 90 94 94 97 102 106 109 113 117 117 118 121 123 122 121 120 121 122 124 126 125 124 123
51 52 54 55 56 59 62 63 66 67 70 73 75 78 79 83 87 88 87 88 88 94 98 102 107 110 114 116 119 120 120 121 121 123 125 127 128 129 131 133 135 135 135
58 59 60 61 63 65 68 70 71 74 76 81 82 83 87 89 89 92 93 93 95 98 100 106 109 112 115 117 118 119 121 125 128 130 132 135 138 138 137 136 139 143 143
63 65 67 68 69 70 71 73 75 79 83 85 86 87 87 92 97 100 102 104 101 103 103 104 105 109 115 121 125 128 130 133 136 139 141 142 143 143 141 140 140 140 139
70 72 73 75 75 76 76 78 81 85 86 87 88 90 95 97 100 107 111 112 111 102 96 103 110 116 122 128 132 136 137 139 142 143 142 140 136 131 127 125 123 122 121
77 78 79 79 80 80 80 83 86 87 87 90 92 94 99 104 108 110 110 110 114 117 112 113 118 124 128 132 137 140 139 138 136 130 122 120 116 112 109 107 106 104 104
82 83 83 83 82 83 86 88 87 89 91 93 98 101 105 108 107 109 112 114 119 126 130 123 127 131 134 136 134 130 123 116 111 108 106 104 102 101 100 98 99 97 96
85 84 84 84 85 88 89 90 91 94 96 99 104 105 105 107 111 113 117 122 128 132 137 136 132 131 127 119 111 105 101 99 96 96 96 96 96 91 87 86 88 90 88
86 85 85 86 88 90 92 93 95 97 103 105 106 105 109 113 115 120 126 130 133 135 138 134 124 116 107 103 96 94 91 93 94 90 87 86 84 80 81 82 84 86 86
86 87 88 89 92 95 95 97 101 104 105 104 108 112 115 119 124 129 132 134 135 132 127 118 109 103 99 94 90 85 86 91 89 82 79 78 76 77 76 74 74 78 79
88 89 91 92 94 97 101 103 103 101 104 108 113 118 122 126 131 134 136 133 126 116 111 106 101 97 92 88 85 83 78 81 83 73 68 74 66 66 65 65 65 68 69
89 91 91 93 99 102 103 101 102 107 112 116 119 124 128 131 136 135 128 118 114 111 105 97 92 88 85 81 77 77 75 71 70 64 60 68 54 62 59 55 55 59 61
89 91 96 99 99 99 101 105 111 115 120 124 127 131 135 137 129 118 110 109 107 106 101 92 84 81 74 73 70 70 65 61 60 58 59 57 49 50 50 49 49 49 50
92 97 97 96 97 102 107 113 118 122 126 131 135 137 133 121 115 110 105 100 97 95 91 85 78 70 69 67 62 59 55 54 53 50 49 44 44 43 42 41 42 42 43
95 95 95 99 103 109 115 121 125 129 132 136 138 128 119 114 108 102 95 88 85 84 81 75 68 64 61 57 53 51 47 46 44 42 39 36 36 34 35 34 34 35 37
93 96 100 106 111 116 124 128 132 133 134 130 122 117 112 107 100 93 86 81 77 75 72 70 63 57 53 49 45 42 39 38 37 35 32 29 27 27 28 28 28 30 33

GFSMA_250_spd_027.txt.gz
Wind_Speed
35 39 44 44 42 41 42 44 43 43 43 45 48 53 55 55 56 54 55 57 59 64 65 68 68 70 72 71 66 65 62 63 65 65 64 64 64 66 67 68 69 70 71
40 43 45 44 42 41 42 42 44 43 43 45 48 51 57 59 61 62 63 67 68 73 75 76 75 77 73 67 65 65 67 69 70 70 70 68 66 68 71 72 72 72 72
43 43 43 43 41 41 42 41 42 44 44 46 49 52 56 65 67 67 67 70 76 78 80 83 77 74 69 67 67 69 71 73 74 71 68 68 67 68 69 71 74 75 77
44 41 40 41 41 41 41 40 41 42 45 47 49 51 57 62 63 68 72 74 75 72 71 70 70 71 70 71 73 75 77 76 74 73 74 74 74 75 75 76 78 79 81
42 40 40 40 40 41 41 41 41 42 43 46 49 52 55 58 59 62 63 66 68 70 70 71 71 73 75 78 80 81 81 80 79 80 81 81 81 82 84 84 85 85 86
43 42 42 40 40 39 39 41 43 43 43 46 48 51 53 57 58 62 63 66 69 71 73 75 77 79 82 83 85 85 85 85 85 86 88 88 88 90 91 92 92 92 92
40 41 42 43 43 43 42 42 43 45 44 45 48 53 56 59 61 64 67 70 73 75 79 81 83 84 86 87 88 88 89 91 92 93 95 96 96 97 97 98 98 100 99
41 42 44 47 49 49 49 50 50 49 51 49 51 53 56 63 63 67 70 73 75 77 80 82 84 87 88 90 93 96 98 99 98 99 101 103 105 106 105 105 105 105 105
43 43 45 46 47 49 50 51 52 55 58 60 59 59 60 63 65 71 74 78 80 82 85 88 92 94 97 99 101 103 104 106 106 110 110 110 109 110 111 111 110 110 111
40 42 45 47 49 51 53 54 55 57 59 62 66 66 67 67 66 65 73 81 85 88 91 93 95 98 102 104 106 108 109 110 111 112 114 114 114 114 115 117 119 120 118
43 46 49 51 54 56 58 60 61 62 63 66 69 73 76 76 76 73 72 80 87 92 94 96 99 103 105 107 108 110 113 115 115 117 118 118 119 120 120 121 121 122 124
51 54 56 59 62 63 65 66 67 69 71 73 74 76 77 79 82 84 85 87 88 92 96 100 102 105 107 110 112 114 115 117 119 121 122 122 122 122 121 120 120 121 124
58 60 62 65 67 70 71 73 74 76 77 79 80 82 84 87 89 91 93 91 92 91 92 96 101 104 108 110 112 115 118 120 120 120 121 123 125 127 127 128 129 130 131
63 66 70 72 74 76 77 78 80 81 82 84 85 88 89 94 97 100 100 98 91 90 92 99 104 108 111 113 115 118 119 121 122 125 129 132 135 137 137 137 137 138 138
69 72 75 78 81 82 82 83 84 84 85 87 90 92 96 98 100 101 101 101 101 95 94 102 105 109 112 117 122 127 128 129 131 135 139 141 143 144 143 143 141 139 138
75 78 82 85 87 88 88 88 87 88 90 93 95 97 98 100 100 103 106 107 108 107 99 101 107 113 117 122 128 133 136 138 141 143 143 142 140 136 133 130 126 123 120
81 85 90 92 92 92 91 89 90 92 94 96 98 98 99 103 106 107 108 108 110 115 117 111 120 124 127 130 134 137 139 137 133 132 127 121 119 117 113 110 109 107 106
87 92 96 95 94 92 91 92 94 94 96 96 97 101 106 106 107 108 110 114 118 123 129 129 125 129 131 129 125 120 116 114 111 109 107 107 105 101 97 96 94 93 95
94 98 96 95 93 93 95 95 95 96 97 101 104 103 104 106 110 114 119 122 126 129 133 134 127 120 113 110 105 103 101 101 99 97 94 91 88 86 86 88 87 87 87
99 98 95 93 95 95 95 95 97 99 101 102 103 104 109 114 118 122 125 128 131 131 127 121 112 103 101 98 96 91 91 92 89 87 84 84 81 81 81 80 79 79 80
98 95 94 94 96 96 97 99 99 100 101 102 107 112 118 122 125 129 132 131 124 116 111 105 100 97 95 91 88 87 83 82 83 79 78 79 77 76 74 72 72 73 73
93 94 95 94 96 98 99 101 100 101 104 110 114 119 124 127 132 133 126 116 113 107 102 96 94 88 84 83 81 78 76 75 76 74 74 73 66 66 65 63 62 64 64
92 92 94 96 99 101 100 101 103 108 113 118 122 125 130 135 130 117 112 108 106 105 101 92 84 83 77 75 74 73 69 68 66 64 65 61 55 57 56 55 53 54 55
90 93 96 99 99 98 101 106 112 116 120 124 128 133 133 124 114 109 102 100 98 96 92 87 79 75 72 69 67 64 61 59 57 55 56 55 52 50 49 48 48 47 46
93 96 98 95 98 104 110 116 120 122 126 128 133 130 119 110 106 102 96 92 89 86 82 77 73 69 66 61 57 55 52 52 53 49 48 46 46 44 41 39 40 38 36
94 94 94 99 105 112 118 122 124 128 130 129 123 116 110 105 101 95 90 84 80 76 73 70 65 59 55 51 48 47 47 45 44 41 39 38 38 35 30 29 30 28 26

GFSMA_250_spd_033.txt.gz
Wind_Speed
65 66 70 72 70 69 68 59 52 51 50 51 50 49 48 47 47 48 49 49 50 54 57 61 63 64 64 63 62 63 67 67 68 69 72 75 76 74 73 74 74 69 66
67 71 73 71 70 67 61 52 49 49 49 49 48 47 47 47 47 47 48 48 48 51 56 61 66 72 72 73 72 71 73 74 76 76 77 78 80 81 79 76 72 73 71
70 74 73 69 66 61 52 48 50 49 50 51 49 48 48 49 50 51 50 50 49 50 52 55 61 70 77 82 83 82 83 82 81 84 86 84 85 84 84 80 80 78 76
71 72 66 63 56 52 50 49 48 51 51 52 53 53 55 56 57 57 56 55 54 55 55 57 58 61 64 70 77 84 91 94 95 94 94 95 93 90 86 85 85 83 81
68 62 59 55 52 48 49 49 49 49 50 50 51 53 55 56 57 58 58 59 60 62 63 63 64 66 68 70 72 74 77 80 83 85 85 86 88 87 87 87 87 86 86
59 55 51 50 48 49 50 49 51 50 50 51 51 52 53 55 57 59 60 62 63 66 69 71 73 74 76 77 79 81 82 84 85 87 88 89 89 90 91 91 91 92 91
48 49 47 45 45 43 45 47 47 46 47 50 52 54 55 57 59 62 65 67 68 70 72 74 77 79 82 83 85 88 90 91 93 94 94 95 96 96 97 96 96 96 96
48 46 44 44 45 45 45 46 48 49 50 53 55 58 61 62 62 66 70 73 74 77 78 80 82 84 87 90 92 93 95 96 98 99 101 102 103 104 104 105 105 104 103
44 45 45 45 46 47 48 50 52 54 57 58 60 63 64 68 70 76 79 82 83 85 86 87 89 90 92 94 96 99 101 102 104 105 106 107 108 109 110 110 110 109 109
44 46 46 47 49 50 52 54 57 60 62 65 67 69 71 72 74 75 86 91 91 90 91 93 95 97 98 99 100 100 102 104 106 108 110 110 111 112 112 114 115 115 114
46 49 51 52 53 54 57 59 62 66 69 72 74 77 80 81 82 81 82 89 93 95 94 94 96 98 100 101 102 104 106 108 110 111 113 114 115 116 116 116 117 119 120
50 52 54 57 58 60 62 65 68 72 75 79 82 85 86 88 92 96 94 92 87 86 90 94 97 100 103 106 108 109 110 113 114 116 117 118 118 117 116 115 114 115 115
53 56 59 62 62 65 68 72 74 78 83 87 90 93 95 97 101 103 98 92 86 86 89 92 97 101 104 106 106 107 108 108 108 110 111 112 113 113 114 114 114 115 116
57 62 63 64 66 70 74 78 81 87 91 93 97 99 104 107 104 98 95 92 90 91 88 91 97 100 101 101 103 106 108 110 111 113 114 116 116 116 117 117 117 117 118
62 64 66 68 72 76 80 84 90 94 97 101 105 109 111 102 98 99 101 100 95 87 87 92 94 98 102 105 108 112 115 116 118 120 123 124 124 124 125 124 124 124 123
65 68 69 73 78 82 86 91 96 99 104 108 112 111 102 101 103 101 100 101 102 101 94 97 101 107 111 115 118 120 121 123 124 125 126 126 128 130 130 128 129 130 129
71 73 76 80 83 88 93 98 100 106 110 115 110 103 105 103 100 101 99 102 107 113 114 110 115 120 122 124 125 124 122 119 118 119 119 117 116 115 114 113 114 117 118
75 78 81 84 89 94 99 102 107 112 116 109 106 105 101 100 97 100 106 111 117 122 126 125 123 125 124 122 116 111 109 105 102 103 104 104 103 101 101 101 102 102 103
78 81 85 90 94 99 104 108 112 116 107 106 103 99 97 98 104 110 116 121 125 127 132 131 119 116 111 107 102 100 98 97 94 93 93 90 90 90 91 92 93 93 92
81 85 91 95 99 104 108 112 115 105 106 103 100 96 102 108 114 119 123 127 130 130 126 116 110 104 102 98 95 90 89 87 84 83 81 82 82 81 82 82 81 82 82
87 92 96 100 103 107 112 112 103 104 100 96 98 104 111 117 122 127 130 131 130 122 111 103 102 98 94 89 86 84 79 79 78 72 75 76 72 72 70 69 73 74 73
91 96 100 103 108 112 107 104 101 97 95 99 105 112 119 124 127 131 132 127 120 108 99 94 94 90 89 82 81 75 72 69 70 64 67 67 63 66 61 63 62 62 65
96 99 102 108 110 102 102 97 93 94 100 107 114 120 124 129 131 129 121 116 110 103 96 89 88 84 82 76 73 70 64 61 59 60 60 56 56 55 53 53 53 55 55
98 103 107 106 100 99 92 91 93 100 107 115 122 127 129 131 127 117 109 105 101 96 89 85 81 77 73 70 66 62 60 55 49 49 52 48 48 43 43 45 45 43 44
103 107 99 99 94 92 89 94 99 106 113 120 126 130 130 123 114 107 100 96 92 88 83 76 72 69 66 62 60 58 54 49 43 41 41 39 38 36 34 37 36 36 37
100 95 96 91 88 89 94 100 107 113 118 124 130 129 121 113 107 99 94 88 85 81 77 71 65 62 58 54 49 47 47 44 40 37 34 33 31 33 25 34 30 31 30

GFSMA_250_spd_039.txt.gz
Wind_Speed
77 78 76 75 73 72 71 71 72 71 68 66 65 65 64 59 55 49 45 43 44 44 44 46 47 48 48 49 50 50 50 50 50 51 53 56 57 59 65 67 70 69 69
76 76 75 75 75 75 72 72 72 69 67 64 66 64 59 55 49 48 46 45 44 45 45 47 48 50 51 52 53 53 53 53 54 56 57 57 59 62 65 68 71 73 74
71 72 73 73 71 69 68 68 70 70 67 66 64 59 55 49 48 46 47 47 47 48 49 49 51 53 54 55 56 57 58 58 59 61 61 62 63 65 66 69 72 75 79
67 67 67 66 67 67 68 67 69 66 68 66 59 56 52 49 47 48 48 50 51 51 53 54 55 57 59 60 62 63 64 64 66 66 67 68 70 71 71 73 74 76 80
63 62 63 65 66 65 65 68 66 67 68 58 54 53 51 48 49 51 53 55 57 57 58 58 59 62 65 67 68 70 72 73 76 77 77 77 77 78 79 81 81 81 82
57 58 61 65 64 64 63 64 66 66 56 54 53 53 49 50 53 56 57 60 62 62 65 66 68 69 71 74 77 78 80 81 82 84 86 87 88 88 88 88 88 88 89
55 56 56 60 60 61 61 64 59 53 54 53 53 50 52 54 58 62 63 66 68 69 72 74 76 77 80 82 84 86 89 92 93 95 96 97 96 97 97 97 96 95 95
52 53 55 56 59 60 59 54 51 50 49 52 52 54 57 59 62 66 69 71 73 75 79 81 83 86 87 91 93 95 97 100 103 104 102 101 100 100 100 101 100 100 102
49 49 51 53 52 53 50 50 49 48 50 52 54 58 61 64 68 75 78 79 79 82 85 89 92 94 96 99 102 103 105 109 105 98 95 94 95 95 96 97 99 100 102
50 50 49 49 49 49 49 49 49 51 53 55 60 63 65 68 71 75 83 87 88 91 94 98 102 103 106 109 111 111 114 106 100 99 99 100 100 100 101 101 101 103 104
50 49 50 49 49 49 48 49 51 54 57 61 65 68 71 74 77 77 78 86 91 96 100 104 108 111 115 118 119 120 112 107 107 106 102 98 97 96 96 98 99 102 104
50 50 49 49 50 49 50 52 56 59 63 67 70 74 76 80 82 83 82 85 88 95 103 108 114 118 121 124 124 116 114 113 107 103 100 99 99 101 103 104 104 104 104
50 49 50 50 50 51 54 57 61 64 68 72 75 78 81 83 87 89 89 89 89 95 102 108 115 120 124 120 117 117 110 105 104 105 108 111 114 116 118 118 119 119 119
50 50 51 51 53 56 58 61 66 69 73 76 79 84 88 89 93 94 95 96 97 102 106 111 120 121 114 116 108 103 104 107 110 115 120 124 127 128 129 129 128 127 127
53 53 55 56 58 60 63 67 70 74 77 81 85 89 92 95 98 100 102 105 106 105 109 119 112 114 109 106 108 110 113 116 121 125 128 128 128 128 125 123 123 124 124
55 57 59 61 62 65 68 71 75 78 82 86 90 95 97 100 103 104 107 111 116 119 110 109 105 103 107 110 115 118 123 127 128 125 120 115 110 108 110 111 110 110 109
59 62 63 65 66 68 71 75 79 83 88 92 96 100 101 102 105 109 114 119 122 115 110 94 104 109 115 119 124 128 124 119 115 110 105 101 101 100 98 99 100 100 100
61 63 65 67 69 71 75 79 84 88 93 98 101 101 103 106 111 116 121 118 113 106 105 106 110 118 123 129 131 128 118 110 101 99 95 94 95 91 92 93 93 94 93
62 64 67 69 72 76 79 83 88 93 98 103 102 104 108 113 118 121 114 109 100 108 115 119 119 126 130 131 123 114 106 100 94 90 89 88 84 82 84 84 85 83 83
63 66 68 72 75 80 84 89 93 99 103 104 105 109 114 118 117 112 100 103 109 116 122 125 128 132 127 118 109 99 95 90 85 84 84 82 74 75 72 73 76 75 76
64 68 71 75 80 85 89 94 99 103 104 107 111 116 118 113 107 98 103 110 118 124 126 129 129 119 112 103 97 92 85 84 78 75 79 73 68 68 64 63 64 70 69
67 72 76 80 85 89 93 98 99 103 107 111 116 114 111 98 99 106 112 121 128 130 130 124 115 106 100 94 90 85 81 76 75 63 72 65 62 60 56 59 60 59 60
70 74 78 82 86 91 94 98 102 107 111 113 109 108 96 100 107 112 120 127 133 135 125 113 104 97 93 86 84 81 75 69 63 59 64 59 56 51 51 50 49 52 53
74 78 81 85 90 93 98 101 107 111 108 108 99 96 100 107 115 121 124 130 133 122 111 103 95 89 83 79 75 72 69 66 59 47 53 52 52 45 48 45 43 42 43
77 80 85 88 93 97 101 108 106 104 103 93 96 103 109 115 122 125 129 129 117 108 101 95 86 81 77 71 66 64 60 54 56 46 47 45 45 41 38 40 41 39 38
80 85 88 93 96 103 105 102 102 92 90 94 102 109 116 123 125 129 124 111 105 100 94 86 80 75 69 64 58 52 52 51 50 50 41 43 40 41 35 33 33 33 34

GFSMA_250_spd_042.txt.gz
Wind_Speed
81 82 83 83 82 81 79 78 79 78 76 73 73 70 69 68 70 68 66 61 55 54 50 46 44 43 43 43 44 45 46 47 48 49 50 50 48 47 49 50 51 51 52
80 80 79 79 77 78 83 81 78 78 73 72 70 70 69 69 70 66 65 58 54 51 50 48 46 46 48 48 49 50 50 50 51 52 53 54 54 55 56 56 56 56 58
77 77 80 78 77 79 80 78 75 72 70 69 68 67 69 70 67 67 62 56 51 54 50 49 50 52 54 54 55 55 53 53 54 56 58 60 61 62 63 64 64 64 64
69 70 73 75 78 80 79 80 70 69 70 68 68 69 67 68 67 64 59 54 53 52 52 53 55 58 59 60 60 60 62 62 62 63 64 65 67 68 70 71 72 73 74
56 57 61 63 65 67 67 68 69 67 68 69 66 67 68 65 65 59 57 55 54 54 56 58 60 63 64 65 67 69 70 71 71 72 76 76 75 75 77 79 80 81 82
56 54 53 54 56 59 62 64 66 64 62 62 63 64 64 63 57 57 56 56 57 58 61 62 65 68 71 72 74 75 77 77 79 81 83 86 87 87 88 89 90 90 92
56 52 51 53 55 56 57 58 59 58 60 60 62 63 59 55 55 55 56 58 60 63 66 67 71 74 76 78 79 81 83 84 87 89 91 92 95 97 98 100 100 100 98
54 53 53 52 52 51 53 53 54 56 58 58 57 56 53 54 54 56 59 62 65 69 71 73 77 79 80 82 83 86 88 92 94 96 98 100 102 103 106 107 106 99 94
56 55 55 54 53 54 54 53 54 54 54 55 54 53 54 54 57 61 64 68 71 74 77 80 82 84 85 86 88 90 92 95 97 101 104 106 108 110 111 106 98 97 97
58 56 57 55 54 55 55 54 54 54 53 53 54 54 55 56 59 64 72 74 78 80 82 86 88 91 93 93 94 96 98 100 103 106 110 112 113 108 102 102 98 94 92
60 58 57 57 57 57 56 55 55 52 53 55 55 57 58 61 64 67 72 79 81 85 88 93 98 101 102 103 103 104 106 108 111 115 117 114 107 107 102 93 90 89 89
60 59 58 58 59 59 56 55 52 53 56 57 59 61 63 67 70 72 74 77 82 90 94 99 104 106 107 107 109 111 114 118 122 121 114 112 110 102 99 99 99 101 101
60 59 58 59 59 57 56 54 55 56 58 60 63 65 68 73 76 78 80 82 85 91 97 103 107 108 110 113 116 120 124 125 121 118 118 112 108 109 111 113 114 115 115
60 59 59 61 59 57 57 58 59 60 63 65 69 72 75 78 81 84 86 89 91 97 102 104 106 107 110 115 119 121 117 114 114 111 110 114 118 122 125 127 129 127 126
60 60 60 61 60 59 60 62 63 66 68 72 75 77 80 82 85 89 93 97 99 99 103 107 109 113 118 120 116 114 113 107 110 113 116 122 125 129 132 132 129 126 123
60 59 59 61 61 62 64 66 69 72 75 77 79 82 84 88 91 95 99 102 106 105 101 111 115 119 116 115 113 107 108 113 118 123 128 126 126 124 119 117 113 109 107
59 59 59 61 63 65 67 70 72 76 78 80 82 86 89 93 97 101 104 107 110 111 112 115 116 113 111 108 110 113 118 123 128 130 125 117 114 109 103 99 97 97 97
59 60 61 63 66 68 70 71 74 77 80 83 86 90 94 98 102 105 108 110 114 118 119 110 109 104 109 113 116 122 128 131 126 118 108 103 103 96 94 90 89 90 90
60 61 63 65 66 69 71 74 76 79 82 86 90 94 99 102 105 108 112 115 119 116 115 107 101 108 114 121 125 131 130 121 109 101 96 95 92 84 85 86 85 84 83
60 62 64 66 68 70 73 76 79 82 86 90 95 99 101 104 108 112 117 118 114 109 105 108 110 113 120 127 130 123 114 107 98 92 88 89 82 78 77 75 76 77 76
61 62 65 66 69 72 75 78 81 86 91 95 98 100 104 109 114 118 114 113 104 107 111 114 117 122 128 127 119 108 100 95 90 78 85 87 68 73 69 68 68 67 67
61 62 65 68 70 74 78 81 86 90 94 98 101 106 110 116 116 113 109 104 110 114 116 119 124 130 126 114 105 99 91 86 84 72 73 80 61 66 60 63 61 60 60
61 63 67 70 74 78 82 86 90 94 98 103 108 112 117 112 112 102 103 109 115 121 124 126 130 123 111 102 96 91 85 81 77 70 68 69 55 58 53 57 56 55 55
61 65 70 74 78 82 86 90 94 99 104 108 114 115 112 108 99 103 108 115 121 126 130 129 119 107 99 92 86 83 79 76 70 61 55 59 50 53 48 50 50 50 48
64 69 74 77 82 86 89 94 99 104 109 114 110 111 101 100 105 111 115 120 125 130 128 115 104 97 90 86 81 77 70 66 65 60 53 53 46 51 43 45 47 46 44
68 72 76 81 85 89 95 101 105 110 110 107 107 98 100 105 113 117 121 125 129 125 111 103 95 87 82 78 72 66 61 60 57 62 52 52 42 44 45 39 41 42 41

GFSMA_250_spd_045.txt.gz
Wind_Speed
88 87 88 87 88 88 87 87 85 86 86 85 80 79 79 79 80 75 74 71 70 67 66 65 63 57 54 53 49 47 46 46 47 48 48 47 46 45 43 43 44 46 47
82 81 79 80 80 83 87 87 84 82 82 82 79 80 83 80 76 73 69 70 70 69 68 64 61 56 54 54 50 47 49 51 51 52 53 52 52 52 52 52 52 51 51
74 74 74 75 77 77 78 78 77 77 80 79 81 82 81 78 74 70 70 69 70 68 67 63 56 55 55 53 51 52 54 55 55 56 58 59 59 60 60 60 61 61 61
71 70 70 71 70 71 70 70 71 74 74 76 76 74 72 71 71 69 69 68 65 65 62 60 55 56 57 55 56 57 58 59 61 63 65 67 68 68 68 69 68 68 70
70 69 67 66 62 63 64 63 60 61 61 64 65 65 65 67 67 66 64 63 63 62 59 56 57 57 57 58 60 62 63 65 66 69 70 70 72 73 74 75 76 77 77
71 70 68 66 62 64 63 59 57 59 60 59 60 59 59 61 61 61 63 62 62 59 56 58 58 58 60 63 64 66 69 69 72 74 75 76 77 78 79 80 82 84 84
73 71 69 67 66 62 57 56 58 56 55 52 52 54 55 57 59 59 60 61 58 56 58 58 59 62 64 67 69 72 74 75 78 81 82 84 85 85 86 87 88 89 90
72 72 72 71 67 61 59 59 58 56 56 55 54 54 55 56 56 57 58 56 57 59 60 61 63 66 68 71 74 76 78 81 84 87 90 92 92 93 93 93 94 95 97
66 68 70 71 66 63 61 59 60 59 59 56 55 55 56 56 57 57 57 58 60 61 63 66 68 70 73 75 77 80 83 87 90 93 95 95 94 95 97 98 100 102 104
67 67 68 69 66 65 63 63 62 61 59 58 58 57 58 58 55 57 61 64 65 67 69 72 75 77 80 81 83 86 90 93 97 99 99 97 97 99 102 104 107 109 111
68 71 70 69 67 65 64 65 63 61 61 60 61 59 61 58 59 60 63 66 68 71 73 77 83 86 88 89 92 94 97 101 103 103 103 103 104 107 109 112 113 112 106
66 69 69 67 66 64 64 63 63 62 63 63 60 63 62 63 64 65 67 71 74 79 81 84 89 91 93 96 100 103 106 107 107 107 110 111 113 115 115 112 110 106 97
66 68 67 65 65 64 64 64 64 64 65 65 64 64 66 68 69 71 73 75 78 84 87 92 94 96 98 102 106 109 112 114 116 119 121 123 121 115 113 106 99 102 104
66 67 67 66 65 64 64 63 65 66 67 68 68 69 71 73 75 77 80 81 83 86 90 93 98 101 104 107 110 113 116 119 122 126 125 121 120 114 108 111 114 116 118
64 64 66 65 65 64 63 64 66 67 69 71 72 73 74 77 79 82 84 86 86 86 90 98 102 105 108 110 113 116 120 122 122 120 118 107 105 108 113 120 124 126 127
65 67 66 64 64 65 65 66 68 70 71 74 75 76 78 80 83 85 87 89 92 94 94 101 105 108 111 114 119 123 121 118 118 107 107 110 114 119 123 126 126 124 118
63 65 66 67 67 67 67 69 70 72 73 75 77 80 83 85 87 89 91 94 96 99 99 104 109 113 118 121 122 120 118 107 108 111 118 121 123 124 118 112 106 103 101
61 64 65 67 67 66 69 70 72 73 76 78 80 82 85 87 90 92 95 98 101 103 105 106 114 120 122 121 121 111 109 112 116 121 125 124 119 110 103 98 95 93 91
61 62 64 66 66 67 69 71 73 75 77 80 82 85 88 90 94 96 99 102 105 108 112 116 118 119 121 118 109 111 114 121 125 122 117 109 104 97 93 88 85 84 83
60 62 64 65 67 68 70 72 74 77 79 82 85 88 91 95 97 100 103 107 110 115 120 122 117 116 110 111 112 115 121 127 123 109 102 101 93 86 82 80 79 78 76
58 62 64 66 68 70 71 73 76 78 80 84 88 91 95 98 101 105 109 113 118 123 122 120 114 108 111 113 118 124 123 117 110 94 92 92 80 78 74 73 72 72 68
55 61 64 66 68 70 72 74 77 79 83 87 91 95 99 103 106 110 114 119 124 121 119 110 111 112 115 121 125 125 114 105 98 85 78 87 73 70 67 64 64 64 61
54 58 63 66 68 70 72 75 79 83 87 91 95 100 103 107 111 115 120 120 119 113 113 112 113 119 123 127 121 111 103 94 85 78 73 80 65 62 58 55 56 58 57
53 57 60 64 67 70 73 78 82 86 91 95 100 104 108 112 118 120 116 112 111 116 117 118 121 124 123 112 103 99 91 86 80 70 62 68 61 55 54 47 50 53 52
52 56 59 62 66 72 77 81 85 90 95 99 105 109 113 118 117 116 109 110 115 117 120 124 124 119 107 100 90 85 82 76 75 68 54 56 54 49 53 43 45 49 48
50 54 58 64 70 74 78 84 89 94 99 104 109 115 118 115 113 107 111 114 116 121 125 125 114 103 94 85 80 75 71 68 63 65 53 54 51 40 53 39 39 43 44

GFSMA_250_spd_048.txt.gz
Wind_Speed
79 81 84 86 86 87 88 87 84 85 83 82 85 84 84 85 83 79 79 79 76 75 74 69 66 68 67 63 63 59 55 52 51 50 48 47 44 44 46 45 45 46 46
73 73 76 77 79 78 80 80 77 78 79 77 76 76 74 75 77 76 78 77 75 72 68 66 65 66 66 63 62 56 54 53 53 52 50 50 50 50 51 52 53 54 55
73 72 73 73 75 74 73 74 76 75 75 74 73 74 73 70 70 73 70 70 67 66 66 64 65 64 64 62 59 54 53 54 55 53 52 54 55 55 56 57 58 60 61
74 74 73 74 75 73 74 74 73 71 72 71 69 68 64 64 64 65 65 63 62 62 61 61 62 62 61 61 58 53 54 56 57 56 56 58 59 60 62 62 64 64 65
69 73 76 75 75 74 74 73 71 71 69 66 63 62 63 62 60 60 60 59 59 59 60 59 58 60 60 60 55 55 56 57 58 60 61 62 64 66 67 68 69 70 70
66 69 72 74 77 75 74 75 73 72 70 65 60 61 61 58 58 52 53 54 55 54 56 58 58 58 58 56 56 57 59 60 62 64 66 68 69 71 72 73 75 76 78
62 64 66 68 71 73 74 76 74 73 70 65 62 61 60 58 58 58 58 56 55 56 56 58 56 56 57 58 59 62 63 65 67 69 70 73 75 76 78 79 81 84 86
60 61 64 67 67 70 73 76 75 74 71 66 65 62 59 61 62 59 59 57 56 58 59 59 58 58 60 63 65 66 68 71 74 75 77 80 82 83 84 87 89 91 93
61 58 63 66 68 68 70 71 72 73 71 68 66 64 61 61 62 63 61 60 59 60 60 60 62 63 65 67 70 72 75 77 80 82 84 87 88 90 92 94 96 98 99
57 56 58 65 69 69 71 70 68 67 68 67 67 65 64 64 63 64 64 63 63 63 63 65 68 70 70 72 75 78 80 83 87 89 91 93 94 96 98 101 102 103 101
55 57 58 62 68 69 69 70 70 69 68 67 67 66 66 67 66 65 65 65 65 66 67 70 73 76 77 79 81 82 85 87 90 94 96 98 101 102 103 103 102 102 103
53 56 58 60 64 67 69 70 72 72 71 68 66 67 68 69 69 67 66 68 69 73 74 76 78 80 82 83 85 87 89 93 96 99 103 104 105 105 105 107 108 111 113
51 53 57 58 62 66 68 70 70 71 70 69 67 68 70 71 71 71 69 70 71 75 78 82 83 84 84 87 89 92 95 99 102 105 108 109 111 113 114 116 118 112 109
53 53 54 57 62 65 66 69 71 72 71 69 69 71 72 72 73 74 75 75 75 78 82 86 89 91 92 93 94 97 100 104 107 111 114 116 118 120 121 115 113 103 101
53 54 55 55 60 66 67 69 71 72 72 71 72 73 74 75 76 78 79 80 81 79 82 90 92 94 97 98 101 103 107 109 113 118 120 123 124 117 114 101 104 106 109
53 55 56 56 60 65 68 70 71 72 73 74 74 75 76 78 80 82 83 85 87 87 84 91 94 97 100 103 106 109 112 116 120 124 125 120 115 102 103 104 108 113 117
54 54 56 56 58 65 69 70 73 76 77 77 77 78 80 81 83 84 86 88 91 92 92 94 98 101 103 107 111 115 119 122 125 124 118 107 107 107 110 113 116 117 116
53 53 56 56 58 64 68 69 70 73 76 78 80 81 83 83 85 87 89 91 94 97 98 98 103 106 109 112 117 119 123 124 121 109 111 112 113 117 117 115 112 105 100
54 55 55 53 55 60 64 65 69 71 74 77 79 81 83 84 87 89 91 94 96 99 102 104 105 109 113 120 121 123 121 113 110 112 114 119 117 114 109 101 97 93 90
54 55 54 52 51 54 60 65 68 71 73 76 79 81 84 86 88 91 93 96 100 103 105 107 110 114 120 124 122 117 109 115 118 118 116 114 110 102 97 92 87 83 83
55 55 54 53 55 55 58 64 69 71 73 76 79 81 84 86 88 92 96 100 103 107 110 114 117 121 124 123 115 110 115 117 122 116 108 109 97 94 84 81 78 77 76
56 56 57 58 58 59 59 62 67 70 73 75 78 82 83 86 91 95 99 104 108 113 116 119 122 121 119 107 110 116 120 120 120 105 94 100 85 83 76 74 69 69 68
56 58 59 61 61 60 59 60 65 68 71 74 77 80 85 91 95 99 104 109 114 121 125 125 121 109 107 113 116 118 119 112 105 96 85 87 80 76 68 66 59 62 61
55 57 59 60 59 59 56 58 62 66 70 74 78 85 89 95 100 104 109 115 121 126 127 121 111 111 114 117 117 113 105 102 98 85 74 73 74 69 63 57 51 54 53
55 56 56 57 56 53 54 58 62 66 72 79 85 91 96 100 105 111 115 120 122 121 116 114 115 116 117 116 106 98 95 88 86 83 67 64 65 59 60 54 43 45 46
52 53 52 50 49 52 57 62 67 73 79 85 92 98 103 108 113 117 118 116 112 113 114 118 120 117 109 101 96 86 79 76 73 73 61 59 58 47 55 51 42 46 48

GFSMA_250_spd_051.txt.gz
Wind_Speed
73 75 77 77 76 78 80 80 81 80 81 82 81 78 78 78 78 76 74 73 72 72 74 74 74 73 71 68 66 63 59 58 57 56 57 52 50 49 49 48 45 44 42
68 70 70 71 72 73 74 74 74 73 72 72 72 73 72 69 69 70 72 72 71 71 70 70 67 64 62 59 58 57 58 57 56 57 57 51 51 51 52 50 48 48 48
64 66 65 66 68 74 76 76 74 73 71 71 71 72 69 69 67 68 70 67 66 66 65 65 64 60 58 57 55 55 57 57 55 56 55 53 52 54 54 52 53 54 54
62 61 60 62 65 68 72 76 76 75 74 73 73 74 71 69 67 66 64 65 64 64 63 61 57 57 55 54 53 55 55 56 58 56 55 53 54 56 57 56 57 58 59
61 60 60 61 62 63 66 69 73 76 77 77 76 75 73 71 69 67 65 64 63 63 61 59 58 56 53 52 53 54 55 55 55 56 54 55 57 59 61 61 62 63 64
60 59 59 62 62 62 62 64 68 70 73 76 77 77 75 74 71 68 65 64 62 62 63 62 60 57 56 55 55 56 56 56 56 56 57 60 61 63 65 66 67 69 71
56 58 59 61 62 61 61 61 63 68 70 71 73 75 76 75 72 70 67 66 65 64 63 63 61 60 58 57 59 59 58 58 58 60 62 63 66 68 69 71 73 74 76
53 53 58 61 63 64 63 63 63 65 69 70 70 70 73 74 72 72 69 67 66 67 66 65 65 62 60 60 59 60 61 62 63 65 67 70 72 74 76 78 80 81 83
52 50 50 56 61 60 61 63 64 64 65 68 69 68 68 69 71 71 70 70 69 69 70 67 67 65 63 63 62 62 63 66 69 71 72 74 76 79 81 83 86 88 90
53 47 50 55 57 58 61 64 65 65 65 67 68 68 67 67 67 67 69 70 71 72 72 72 70 68 65 65 67 66 68 71 73 77 79 81 82 84 86 87 89 91 93
50 51 56 60 58 58 59 63 63 62 65 68 69 68 67 64 66 68 70 72 73 73 73 75 74 73 71 70 71 73 75 77 79 81 83 84 84 85 87 89 92 94 96
61 63 61 59 58 59 59 60 61 62 64 65 68 69 69 66 69 72 74 74 74 77 77 78 77 76 76 76 77 78 80 83 86 87 89 90 91 92 93 95 98 99 102
67 66 64 60 58 59 60 59 59 58 61 64 68 70 69 70 71 73 74 75 74 77 79 82 81 81 81 82 83 85 86 88 91 93 94 95 97 99 101 102 104 107 109
70 69 65 64 59 59 60 60 59 58 60 64 68 70 71 72 74 76 77 77 76 77 80 84 85 87 87 88 90 91 93 95 97 98 100 101 104 105 106 108 111 114 119
68 67 64 64 62 61 59 59 59 60 62 65 68 71 72 73 75 77 78 79 79 77 79 86 87 92 93 94 96 97 99 100 102 104 106 108 109 110 112 114 118 121 124
67 66 66 65 63 61 59 59 61 61 62 65 70 74 74 76 78 80 82 82 83 83 83 88 91 94 96 99 100 102 104 106 108 111 112 112 113 115 117 122 125 125 118
69 68 65 65 62 60 60 60 62 63 64 65 67 71 74 76 78 80 81 85 88 89 89 91 93 96 98 100 102 104 107 110 113 115 115 117 119 121 125 126 120 109 111
65 65 64 65 63 59 60 61 65 65 65 65 66 69 73 76 78 80 83 86 88 91 92 93 96 98 100 102 103 105 108 110 112 117 118 121 125 126 119 110 112 115 115
57 60 63 64 61 59 60 64 65 65 65 65 66 69 73 76 79 81 83 84 87 90 93 93 94 98 100 104 104 105 109 114 118 120 124 125 115 110 112 114 116 115 112
51 56 58 59 57 59 62 65 67 68 68 66 66 69 72 75 78 81 83 85 87 89 92 94 95 98 102 106 109 111 115 121 126 123 114 113 112 113 116 113 108 101 96
50 52 54 55 58 61 63 66 69 69 67 66 67 69 70 71 73 76 80 83 86 90 93 95 98 103 108 113 116 119 119 117 114 112 113 117 115 113 107 98 92 89 85
48 47 51 56 58 61 65 67 68 68 67 69 70 69 68 68 71 75 79 83 88 93 96 100 105 109 114 118 117 111 108 110 117 121 113 109 102 99 95 87 80 79 79
42 47 52 57 59 61 65 66 66 67 68 68 67 66 67 70 74 78 83 89 95 102 106 110 113 115 114 110 108 110 113 113 114 110 99 93 93 91 84 80 73 69 68
44 48 53 57 60 62 63 63 64 66 65 65 65 69 72 76 82 86 90 97 105 111 114 116 114 109 108 111 112 111 109 105 103 101 90 83 85 83 80 74 61 55 53
47 50 53 57 60 62 62 62 61 61 63 68 72 76 79 84 90 96 101 106 110 112 112 111 110 112 113 112 108 103 98 95 92 90 81 77 76 72 72 69 52 43 45
45 49 52 54 56 57 57 58 60 65 69 75 81 85 90 95 100 104 105 106 106 109 113 115 117 116 111 105 98 93 87 84 81 79 74 72 65 58 64 61 46 40 48

GFSMA_250_spd_054.txt.gz
Wind_Speed
80 78 77 74 72 74 74 74 75 74 75 75 75 74 73 74 75 75 75 73 72 72 69 68 68 67 68 66 65 63 63 61 53 51 50 52 52 53 51 52 47 46 46
74 72 69 68 68 69 70 72 73 72 72 74 74 74 74 74 74 74 73 70 68 67 67 67 66 66 65 65 63 62 60 54 51 49 48 51 53 54 53 51 48 49 49
70 68 66 66 67 69 68 67 67 69 70 71 73 74 74 75 77 76 75 73 71 70 69 67 67 66 65 65 62 59 56 54 51 48 49 51 51 52 52 52 51 51 53
66 66 64 65 66 66 66 67 66 66 66 67 70 71 72 74 78 77 76 76 74 73 71 70 69 68 66 64 62 59 59 57 53 51 50 51 52 53 53 54 53 54 55
63 62 61 63 63 62 63 64 66 67 67 66 67 68 70 71 74 76 77 77 77 76 74 72 70 69 68 65 64 62 61 58 56 55 54 53 54 54 55 56 56 57 58
56 55 56 60 62 64 63 64 64 65 66 66 66 67 68 70 70 72 73 74 75 75 75 74 72 71 70 68 66 63 61 60 58 58 58 57 57 57 58 57 58 59 61
60 58 57 57 56 59 62 64 64 63 65 66 68 67 67 68 68 69 71 72 72 72 73 74 74 73 73 72 71 66 64 62 61 60 60 59 60 61 60 60 62 63 65
60 57 57 56 57 58 59 59 61 62 64 66 68 69 69 69 68 69 69 70 71 71 71 73 74 75 74 75 73 71 69 67 65 63 63 61 60 62 64 64 65 68 70
68 65 60 62 64 63 62 58 54 56 58 61 63 65 68 69 68 68 68 69 70 70 72 72 72 73 73 74 75 73 73 72 70 67 64 65 65 65 67 70 72 75 76
68 69 66 64 59 60 62 56 60 63 64 63 62 65 66 68 67 68 69 71 72 71 71 72 72 73 75 75 77 78 77 76 75 72 69 69 70 72 74 76 77 79 81
62 62 64 67 66 65 63 60 63 68 68 66 64 64 64 67 66 67 69 70 70 71 73 74 73 74 76 78 80 80 79 80 80 78 78 77 77 77 79 81 83 84 86
66 67 72 70 72 74 68 67 72 73 72 69 68 66 63 65 66 66 66 68 71 74 75 75 75 76 78 79 80 81 81 82 83 84 85 86 85 86 87 88 89 91 92
72 73 73 82 78 76 75 76 77 74 74 70 69 68 66 64 63 65 66 68 72 76 77 79 79 78 79 80 81 83 84 85 87 88 89 90 91 93 94 95 97 98 98
79 79 82 80 81 79 78 73 74 72 72 71 68 69 68 65 65 67 68 69 69 73 77 81 83 84 84 83 83 84 86 88 91 92 94 96 99 100 100 102 103 103 104
79 80 74 71 76 78 75 70 72 71 72 71 70 70 68 68 67 68 69 71 73 75 79 85 87 89 90 90 92 92 93 94 97 98 100 101 102 102 104 105 106 106 106
74 67 64 65 67 68 69 68 71 72 74 71 70 71 68 69 70 71 70 71 72 74 76 80 85 89 92 93 93 94 95 96 99 101 103 104 104 105 106 105 105 105 107
63 63 62 62 64 64 66 69 73 75 73 72 72 73 71 69 70 72 74 75 76 76 76 79 83 86 88 90 92 94 96 99 102 103 105 106 106 106 105 106 108 110 113
62 62 62 64 65 66 69 72 75 75 73 74 72 72 68 72 74 74 75 76 78 80 81 80 81 81 84 88 91 93 96 99 102 104 105 106 108 110 112 113 115 120 123
58 62 64 64 62 61 64 67 67 68 68 69 71 72 71 72 75 76 77 78 79 82 82 78 75 77 81 86 88 92 96 99 102 105 108 110 113 116 119 120 117 115 115
62 59 58 56 58 60 60 59 61 63 65 71 68 71 74 77 79 79 79 80 81 80 78 76 76 79 84 88 92 94 99 105 110 114 116 116 117 113 113 114 115 115 114
59 59 57 53 59 61 58 56 58 61 65 70 72 73 77 80 80 80 80 79 78 78 80 82 84 88 92 96 100 104 106 110 114 114 109 109 112 114 116 115 111 107 101
51 51 45 40 53 55 55 56 59 62 66 68 71 76 80 80 81 79 77 78 82 86 89 92 95 97 101 104 107 107 103 102 107 113 112 111 111 113 108 103 98 91 83
38 38 34 47 55 55 55 59 60 64 67 70 75 78 79 78 75 77 81 86 91 96 99 100 101 103 103 102 102 104 107 108 111 111 105 102 102 101 97 93 85 76 69
24 33 41 45 49 52 55 59 63 66 70 74 76 74 72 76 81 85 89 93 99 103 106 108 105 103 104 105 105 108 109 107 106 103 95 91 92 92 89 85 74 67 61
36 38 42 45 48 51 56 61 65 69 74 69 69 73 77 82 87 91 96 101 104 107 106 106 107 108 110 111 110 107 105 99 96 95 88 80 80 78 81 77 67 58 52
35 40 43 46 49 55 58 62 65 64 64 70 74 79 83 88 93 97 100 100 101 105 109 113 115 115 115 111 105 98 93 89 84 81 79 74 75 69 70 70 55 47 49

GFSMA_250_spd_057.txt.gz
Wind_Speed
79 80 80 82 81 81 79 81 82 81 81 78 76 75 74 75 76 76 75 74 74 74 74 72 71 69 67 67 64 62 60 60 59 59 58 54 49 48 45 42 43 46 47
77 77 79 80 81 82 81 80 79 77 76 73 72 73 74 74 75 75 75 74 74 75 74 74 72 71 70 68 67 65 64 62 61 59 58 54 51 48 46 43 44 46 49
77 79 79 79 76 76 75 73 72 72 70 70 71 71 71 72 72 72 72 73 73 74 74 74 73 72 71 70 70 70 69 65 63 61 59 56 54 51 48 46 46 46 48
70 72 69 70 70 69 70 68 66 66 68 69 68 67 68 68 70 69 70 70 71 72 72 71 72 72 72 73 73 73 72 69 67 64 61 59 57 55 52 52 51 50 52
64 67 66 65 64 60 60 62 61 61 63 65 67 68 67 67 67 69 69 70 70 69 70 71 71 70 70 71 71 71 71 71 69 68 65 62 60 57 55 54 53 53 53
65 67 62 59 60 61 61 60 62 63 61 60 61 62 64 65 66 68 69 71 72 71 71 70 70 70 70 71 70 70 70 71 70 70 68 67 64 62 60 58 57 57 57
66 61 65 63 63 64 63 61 62 64 63 63 61 60 60 59 61 64 66 68 69 72 73 72 70 71 72 71 71 72 71 71 72 72 71 69 69 66 65 63 62 60 59
65 66 69 67 67 67 68 70 72 68 68 66 65 64 60 58 60 62 65 67 69 69 70 71 70 71 72 72 71 71 71 71 72 71 73 73 72 72 70 67 66 65 64
72 71 72 71 71 71 70 69 71 73 72 69 68 67 60 62 61 67 67 67 67 67 69 70 70 71 72 73 74 74 73 72 73 73 73 74 74 73 74 73 70 69 68
72 71 69 71 74 73 70 68 72 74 73 71 71 70 68 70 71 74 74 72 70 69 69 69 69 72 73 74 75 76 76 76 76 77 77 77 78 77 78 77 77 74 74
71 70 71 73 71 72 73 72 75 79 79 78 76 77 76 76 79 81 79 73 73 71 71 70 69 70 72 73 74 74 76 78 79 81 82 81 82 81 80 81 81 80 81
81 80 75 73 72 71 75 78 79 82 83 82 83 85 81 81 80 83 78 74 74 72 71 70 70 70 70 72 74 76 78 79 80 82 83 83 84 84 84 84 86 86 86
91 87 84 79 77 79 79 80 83 84 84 84 85 87 88 87 83 86 77 73 75 75 74 73 71 70 70 70 71 73 76 79 81 83 86 88 89 89 89 89 91 91 92
97 95 86 81 80 82 83 81 83 86 87 85 85 82 84 83 82 81 77 75 74 74 75 75 75 75 74 73 75 76 79 81 84 86 88 90 90 91 91 92 91 92 93
97 93 89 87 86 84 84 83 84 84 83 79 75 74 77 79 79 79 80 77 75 73 74 77 78 79 80 81 83 83 85 86 88 89 91 91 92 92 92 93 94 94 95
94 91 88 85 84 83 80 81 81 78 73 69 70 72 74 77 79 82 82 80 78 76 74 73 79 82 83 85 88 88 89 89 91 91 91 90 91 91 92 92 94 95 96
89 83 82 82 80 80 78 74 71 70 66 65 70 72 77 78 82 82 81 80 78 78 77 79 81 84 86 89 89 89 89 88 87 87 87 87 88 90 91 93 95 97 99
87 83 81 79 75 71 67 65 67 65 65 67 70 73 76 79 77 78 77 76 77 81 82 82 83 87 88 89 86 84 84 85 86 88 90 91 93 96 97 100 102 104 106
82 74 74 71 65 61 62 66 65 64 65 69 69 69 72 75 74 75 75 79 84 85 85 85 87 87 85 84 83 84 86 91 95 98 99 99 102 104 107 111 111 113 114
79 74 72 68 62 61 59 59 63 64 66 67 67 71 72 72 72 75 79 83 86 89 92 94 88 84 86 89 92 94 97 102 104 107 107 103 103 104 108 108 110 111 112
69 67 64 66 64 62 62 62 61 65 66 65 69 70 70 71 74 79 83 88 91 93 94 89 88 92 96 99 102 104 103 103 102 104 104 105 104 108 110 111 112 112 110
59 57 60 56 51 52 55 58 56 64 65 63 63 67 69 72 78 83 85 89 92 91 88 92 97 100 102 104 104 102 100 102 103 110 111 111 110 111 111 109 108 103 94
41 39 37 39 44 44 46 52 54 59 61 62 69 72 75 77 80 85 88 91 87 93 96 99 101 102 101 102 103 106 109 109 112 113 108 105 101 101 99 99 97 89 80
15 13 18 26 32 32 39 43 47 53 60 66 70 74 78 82 86 87 82 86 93 99 101 104 105 105 106 109 110 110 112 110 106 102 99 92 91 92 90 91 89 77 67
13 12 21 22 27 34 41 46 52 57 62 67 73 77 82 84 80 84 88 93 97 101 104 106 108 111 113 115 113 109 104 98 95 95 95 80 82 79 80 83 81 70 57
21 22 29 31 33 40 45 48 53 61 67 71 76 79 76 78 84 89 92 96 99 102 107 112 116 117 116 113 106 98 93 89 85 81 84 73 76 73 70 76 72 64 56

GFSMA_250_spd_060.txt.gz
Wind_Speed
76 79 79 80 77 79 79 80 79 80 81 83 85 82 82 81 77 74 72 70 72 72 70 69 68 69 70 70 70 70 69 68 65 63 61 59 55 54 52 51 47 44 41
80 79 78 78 79 78 79 78 80 80 80 77 80 79 77 74 71 67 67 67 68 66 65 66 66 66 66 66 68 69 68 68 66 65 64 63 61 58 55 53 50 47 43
78 74 73 77 72 73 73 71 73 75 76 71 72 68 66 63 63 64 64 63 64 64 64 64 64 64 65 66 65 66 67 67 66 67 66 65 64 61 58 56 54 51 49
68 68 69 69 68 70 70 69 71 69 69 67 67 67 66 65 61 60 58 57 59 60 61 61 62 62 64 66 66 65 66 66 66 67 66 66 65 63 60 59 57 54 52
67 69 67 63 64 65 67 64 61 63 64 64 64 63 63 61 61 61 59 58 59 57 56 57 58 61 64 65 66 67 67 66 67 66 66 67 66 64 62 62 60 59 56
68 67 68 65 67 67 65 62 64 68 68 67 67 67 65 67 65 64 63 64 63 60 59 56 57 59 62 64 66 67 68 68 67 67 67 67 67 66 65 64 63 62 61
68 67 67 63 63 64 64 65 69 70 68 70 69 70 71 71 69 68 65 64 65 65 64 60 64 65 66 64 65 65 67 69 69 68 68 68 68 68 66 65 65 65 64
65 68 67 67 66 68 71 74 73 70 72 74 76 78 76 73 69 65 64 64 66 67 71 74 74 72 72 69 66 66 67 68 69 70 70 70 70 70 70 69 67 67 68
69 67 67 70 73 74 76 76 76 74 75 76 79 78 75 72 69 70 72 72 73 74 76 77 77 79 78 74 70 67 67 67 67 69 72 74 75 74 74 75 74 72 71
77 76 77 78 76 77 78 78 79 74 79 78 80 81 78 76 78 78 79 79 77 78 80 81 81 82 79 76 71 67 67 67 68 69 69 70 72 73 76 79 79 79 78
82 76 77 80 78 79 78 80 79 80 82 84 79 82 83 80 80 79 81 83 85 85 84 80 78 77 76 74 72 69 65 65 67 66 67 69 70 71 73 75 76 79 83
88 87 87 85 84 83 81 80 84 87 86 87 83 82 84 82 82 83 83 87 88 86 80 76 75 76 75 74 74 71 69 67 67 68 69 71 72 73 75 76 76 79 81
93 93 92 92 89 87 88 89 92 94 93 86 81 81 82 84 84 85 88 88 85 80 77 76 75 77 77 77 77 75 72 71 72 73 75 78 79 80 81 81 81 82 83
98 97 95 92 93 93 92 96 96 96 92 83 82 85 84 84 85 86 88 84 79 76 77 78 79 80 81 77 76 76 74 76 78 79 81 82 84 84 85 86 86 85 86
100 100 101 100 100 102 101 100 98 93 87 86 86 82 82 83 85 85 85 79 75 74 74 82 84 86 82 79 79 79 78 81 84 85 86 87 87 86 84 83 82 82 83
106 105 106 106 106 105 105 99 93 87 83 84 83 83 82 82 83 82 78 75 75 75 74 81 85 84 82 82 82 84 86 88 91 92 90 85 82 79 79 80 81 81 82
115 110 106 104 102 100 95 92 87 84 82 83 82 82 80 79 78 76 75 73 75 78 78 80 81 82 81 83 87 88 88 89 90 88 83 82 83 84 86 87 89 91 93
108 106 104 101 97 92 88 87 86 83 82 80 77 77 78 75 73 73 77 76 78 79 79 80 81 82 84 88 89 91 94 93 90 89 91 92 92 95 96 99 99 101 102
95 93 92 90 88 87 86 84 82 80 76 72 72 73 72 73 74 74 76 80 79 80 81 82 84 87 89 93 95 96 95 94 95 99 101 101 102 104 105 104 103 103 105
89 88 87 86 85 82 79 77 74 75 74 68 68 69 71 71 72 75 80 81 79 80 82 86 88 91 95 97 98 99 95 99 102 108 110 109 107 107 109 109 109 109 110
73 72 71 71 67 65 63 60 61 63 63 64 67 71 74 74 76 78 78 81 82 82 87 91 94 96 98 100 98 99 102 105 108 110 108 111 113 114 114 113 112 111 109
66 67 67 62 60 57 55 54 55 57 59 64 63 68 71 74 74 75 79 81 84 90 93 95 96 99 104 101 103 107 107 106 106 115 118 121 118 117 113 109 105 102 98
52 55 57 52 52 50 53 52 54 59 58 55 58 59 64 68 73 77 78 81 86 92 95 99 102 105 105 109 107 105 108 112 116 119 116 117 110 104 101 98 94 91 86
29 32 34 34 30 29 33 40 44 46 47 51 55 56 59 63 67 74 79 85 89 95 99 103 103 104 106 104 106 110 114 117 118 116 106 95 99 94 88 86 85 80 73
19 17 8 7 13 17 26 32 38 45 50 51 54 55 61 68 73 78 84 89 91 93 99 103 104 104 106 111 114 115 117 114 108 104 96 83 85 78 77 76 75 72 64
14 13 15 22 21 26 28 33 39 42 45 50 55 61 67 74 78 80 82 87 92 96 98 101 106 110 114 116 115 114 108 101 94 90 81 77 75 70 72 72 71 68 62

GFSMA_250_spd_063.txt.gz
Wind_Speed
70 72 72 73 74 74 75 75 76 74 77 73 73 73 75 74 76 74 71 70 67 63 60 59 59 60 60 58 57 57 57 57 57 57 57 57 57 58 57 56 54 52 49
75 76 76 76 76 76 76 74 73 73 71 73 73 73 72 72 73 71 70 64 60 58 57 56 54 52 54 55 56 56 56 57 57 57 57 57 57 57 57 57 56 55 53
75 75 76 75 75 76 74 70 70 72 71 68 69 72 69 66 66 67 65 63 63 60 58 55 54 56 54 52 49 49 50 51 53 57 59 58 57 57 57 56 56 55 54
77 76 75 75 75 71 69 67 70 68 66 68 66 65 67 63 63 62 61 62 62 63 64 61 57 55 54 53 55 52 53 54 54 55 57 58 58 58 59 58 57 56 55
76 75 74 74 71 70 70 69 68 68 64 66 65 66 67 66 65 62 60 60 62 62 58 55 54 53 53 55 58 60 62 62 61 58 57 58 57 57 59 60 59 59 58
75 74 75 75 73 71 69 67 65 64 63 64 65 69 70 72 70 68 67 66 63 62 57 54 57 60 60 62 62 64 66 67 67 66 62 59 59 58 59 60 62 61 60
78 78 78 73 68 65 66 67 70 68 67 69 71 70 73 73 74 73 72 74 73 66 63 63 65 65 64 65 65 67 68 69 69 69 65 62 60 58 58 59 61 64 64
78 75 71 68 66 68 69 71 71 71 75 74 74 75 75 76 78 77 78 80 78 72 70 70 69 69 68 68 69 70 70 70 67 65 63 60 60 59 59 59 59 62 65
76 75 73 75 74 74 75 75 76 78 77 77 78 77 78 80 80 80 83 83 83 77 75 74 74 73 74 75 75 73 72 66 64 65 64 61 60 60 60 59 60 63 65
78 74 68 70 71 76 77 79 79 81 82 83 84 83 82 80 78 82 87 86 85 80 79 78 78 78 78 78 79 78 72 66 65 66 67 66 63 61 61 61 62 61 63
81 79 79 79 79 81 82 83 85 84 87 89 87 87 83 82 85 87 88 87 83 83 83 84 84 84 82 82 80 77 70 65 66 68 70 71 68 66 64 64 64 64 64
84 82 82 83 83 83 88 89 91 92 89 92 92 90 87 86 91 88 88 84 83 83 86 87 87 86 84 83 80 73 68 67 69 72 75 75 72 70 70 69 71 72 72
90 90 90 89 90 90 91 93 92 94 95 94 93 90 88 92 89 90 86 85 86 87 88 88 89 87 85 83 77 72 69 70 73 76 75 74 75 73 72 74 76 76 76
96 98 99 98 98 95 95 95 94 96 95 94 93 93 93 93 94 91 90 88 86 86 88 88 89 88 86 80 76 74 71 74 75 75 76 75 76 75 75 77 78 81 84
103 104 104 104 103 103 101 100 99 99 99 99 98 95 95 98 94 91 88 88 88 88 88 88 88 86 82 78 78 77 77 77 78 78 78 77 78 79 80 80 82 85 87
111 110 108 107 107 108 107 106 102 104 102 101 99 97 97 94 94 91 90 90 88 88 86 85 86 86 83 82 82 83 83 83 84 84 83 83 83 83 85 86 86 83 81
117 116 115 114 114 113 111 110 108 106 103 100 98 96 96 95 91 91 89 87 85 86 83 85 85 85 85 86 85 85 88 87 89 91 90 90 89 90 91 89 89 86 87
115 115 116 115 113 111 109 108 105 104 102 99 98 96 92 92 92 90 86 84 84 80 82 81 82 87 90 91 89 88 90 93 94 94 96 95 98 97 93 94 94 96 101
102 102 103 103 103 102 102 101 98 97 97 94 90 89 91 90 88 85 73 79 70 80 82 82 84 86 87 91 91 92 92 96 96 100 101 101 100 100 101 102 107 107 105
92 92 90 90 91 93 90 89 88 85 83 84 84 84 83 78 73 67 71 73 77 84 85 86 89 91 93 95 94 95 97 98 100 104 104 104 106 109 110 109 107 108 109
84 82 79 77 76 78 78 77 75 76 76 78 79 76 63 56 64 68 72 74 80 85 87 89 89 89 91 93 95 95 95 97 101 106 107 113 113 111 113 112 110 108 105
51 51 51 56 62 64 61 58 60 63 61 62 61 61 58 70 75 78 79 80 80 80 78 78 81 82 85 89 92 96 99 101 107 114 109 111 116 119 114 111 106 100 93
34 30 30 37 41 45 49 51 51 51 52 54 62 65 64 65 71 75 78 77 76 76 76 78 81 87 91 94 98 104 106 105 105 111 109 116 120 111 110 102 96 89 81
6 8 14 16 19 26 34 40 45 49 51 54 56 55 59 66 69 69 69 68 71 76 81 84 86 90 94 97 95 96 101 107 113 117 110 113 106 102 96 87 83 80 73
12 9 7 4 6 11 15 21 27 33 35 37 37 41 46 51 56 60 66 73 80 84 86 88 89 89 93 97 100 104 109 112 112 108 99 98 90 85 81 75 73 75 71
20 16 9 3 3 5 9 14 20 24 30 36 41 46 51 57 62 69 75 79 81 82 84 89 93 96 100 103 108 111 110 104 96 95 87 83 77 72 73 72 68 69 64

GFSMA_250_spd_066.txt.gz
Wind_Speed
66 67 67 67 68 70 71 69 71 71 70 71 71 70 68 68 70 68 67 66 64 67 62 62 61 57 56 55 53 50 48 45 43 42 43 43 45 48 51 51 51 50 50
71 70 72 71 70 71 72 74 72 71 72 72 72 69 68 70 69 68 66 64 63 63 61 56 56 56 57 55 53 50 49 46 46 48 47 44 44 44 47 50 51 52 51
75 73 73 74 74 75 75 74 72 72 74 71 70 68 70 70 67 64 62 64 63 64 62 59 59 57 58 56 53 52 49 48 49 52 53 53 53 51 48 48 48 50 51
77 76 77 77 76 76 74 73 73 72 72 74 72 71 69 67 63 64 64 67 66 66 64 64 62 62 62 59 60 57 57 57 58 57 57 58 60 58 58 53 51 50 50
77 77 77 77 76 76 76 74 73 72 74 74 73 69 67 65 68 69 70 70 69 68 69 67 67 65 68 69 63 63 65 63 61 60 60 60 61 61 60 59 56 53 51
80 77 78 79 77 76 74 74 73 73 74 72 70 67 67 69 70 73 71 73 75 73 73 73 70 70 73 73 68 67 66 65 64 63 63 63 63 63 60 56 54 53 51
81 81 81 80 77 75 74 73 71 71 70 68 68 70 71 73 74 74 72 75 77 77 78 75 75 77 78 76 76 73 67 66 65 67 66 66 64 61 57 55 54 53 52
82 82 80 80 78 76 76 74 72 72 72 75 74 74 74 76 77 76 78 80 80 80 80 79 78 81 83 81 77 75 73 74 73 73 70 69 67 62 57 56 56 54 54
82 81 81 81 82 83 80 77 74 73 72 73 74 75 76 77 80 82 82 85 83 83 82 82 80 84 85 86 82 76 79 79 76 73 72 70 69 61 58 58 58 58 57
83 82 83 82 82 82 80 78 79 77 77 80 80 82 81 82 85 86 87 86 86 85 83 82 84 81 86 84 85 82 81 79 77 77 75 72 68 62 62 62 62 63 61
84 84 83 83 82 80 82 82 83 83 81 81 84 85 87 88 88 88 88 89 88 85 84 85 85 88 89 89 87 84 82 80 80 78 77 75 69 66 65 66 66 67 68
88 86 84 83 84 82 84 85 86 88 87 87 89 90 92 92 92 91 90 88 89 88 87 88 89 94 93 93 89 88 83 82 82 81 79 76 70 68 68 68 70 69 67
90 91 90 89 90 90 90 90 89 91 91 91 93 93 93 93 92 95 92 91 90 88 93 92 95 95 95 92 94 91 90 87 85 83 78 75 71 71 71 73 73 70 69
95 97 99 99 98 98 98 98 96 96 97 96 95 96 97 97 96 94 94 94 94 96 93 95 94 93 94 94 96 96 89 89 88 83 81 78 75 73 75 76 76 75 74
99 101 102 104 105 105 105 104 102 101 101 101 99 97 96 97 96 94 95 84 88 97 98 97 97 98 98 98 96 91 91 89 89 87 86 82 79 79 80 81 82 79 80
105 107 107 108 109 109 108 109 109 108 105 103 101 97 98 100 102 101 98 93 101 101 100 103 103 98 96 100 96 92 89 86 87 87 84 82 82 81 81 83 84 87 88
113 114 115 117 118 118 118 118 117 117 118 114 109 105 102 97 105 98 97 102 105 104 103 101 104 99 96 90 96 92 91 87 86 86 87 87 87 86 88 90 91 92 89
124 125 126 124 124 125 125 122 119 116 114 111 108 106 105 105 105 104 105 106 105 103 98 100 104 97 91 90 91 89 89 89 91 93 93 95 94 93 92 91 88 88 89
104 105 106 105 105 108 110 112 114 112 111 108 107 107 106 104 104 104 101 96 92 90 90 94 93 89 85 85 88 89 92 95 97 96 93 89 89 89 90 91 92 94 94
92 94 93 89 88 88 87 92 96 102 101 100 98 95 93 92 89 90 90 91 93 93 93 92 91 87 87 87 90 91 92 90 86 86 85 88 91 92 94 95 96 94 98
81 81 81 80 77 73 72 73 78 89 93 93 88 82 81 80 80 83 83 85 86 83 80 82 85 90 95 96 91 87 81 83 88 90 90 97 96 97 99 99 102 104 106
46 48 48 52 49 48 46 47 53 66 76 80 77 71 64 66 69 74 76 76 77 75 80 87 91 93 97 87 79 82 85 87 92 94 91 98 98 106 106 108 106 102 97
27 31 33 33 33 29 27 29 36 45 54 59 59 57 56 63 64 64 69 73 71 71 72 76 76 76 77 79 82 86 88 90 94 95 95 104 110 110 110 104 95 90 86
26 19 17 14 12 11 10 9 13 19 26 33 39 45 51 56 58 59 56 55 58 61 66 70 73 78 80 82 85 88 91 94 99 102 100 106 108 103 95 89 82 76 76
25 28 27 28 24 22 17 15 13 10 9 12 16 22 28 35 41 48 54 59 63 67 72 76 80 83 86 89 91 94 96 99 103 107 104 104 97 90 84 74 67 65 69
25 25 24 23 21 20 19 17 17 19 21 24 27 32 37 43 48 54 60 65 71 76 80 84 86 89 92 93 94 97 101 104 101 98 89 90 81 71 72 67 58 60 61

GFSMA_250_spd_069.txt.gz
Wind_Speed
65 64 66 67 68 67 69 70 70 71 71 73 74 71 70 70 68 67 67 66 65 65 59 57 59 63 57 57 54 56 54 51 51 48 48 45 45 47 47 48 48 46 44
68 67 70 71 72 72 73 73 74 74 75 75 74 71 70 70 68 68 67 66 66 65 62 61 63 62 62 61 58 59 57 58 57 54 54 54 54 54 52 49 49 50 50
71 71 72 74 76 76 76 76 75 76 75 75 72 72 72 70 69 69 68 68 66 62 65 66 65 65 64 63 62 61 59 61 62 62 60 59 56 56 54 52 51 51 49
76 76 77 77 78 78 78 78 79 78 77 74 72 72 72 72 71 70 68 66 66 66 67 69 69 69 67 68 67 66 63 62 65 67 65 63 56 57 57 55 55 54 52
79 79 80 81 79 80 80 80 78 76 73 74 76 74 73 74 69 69 67 66 66 69 70 69 72 71 72 72 70 68 66 64 69 68 69 66 61 57 59 58 58 57 54
83 85 82 82 82 79 81 79 77 76 76 76 74 73 73 70 67 68 69 71 72 73 72 75 73 74 75 75 73 72 70 70 73 73 75 72 69 65 60 56 55 54 53
83 83 84 83 81 80 81 81 80 79 79 77 77 77 75 71 71 71 71 73 75 75 75 75 77 78 79 76 76 75 74 74 76 75 76 78 74 71 68 61 57 56 54
87 83 83 83 83 83 82 83 84 82 82 81 81 77 77 74 74 73 74 75 78 77 76 78 81 82 82 79 80 78 77 77 75 76 77 81 75 74 69 65 63 59 58
86 86 86 87 85 85 84 85 86 84 81 80 81 80 76 75 76 76 75 78 79 80 81 84 83 84 85 83 82 79 78 76 77 81 86 84 78 76 72 69 66 62 61
89 89 88 87 89 87 86 89 88 85 84 83 85 82 79 79 80 79 82 83 83 85 87 87 87 87 88 85 86 83 84 80 83 87 85 85 84 79 75 72 68 66 63
93 92 93 91 91 90 90 88 87 87 89 85 84 84 83 83 82 84 83 86 87 90 90 90 89 89 92 88 87 87 87 89 91 91 88 88 86 83 78 74 73 70 66
99 95 94 92 93 92 92 91 93 90 89 90 88 88 88 90 88 90 90 89 89 90 93 93 92 91 92 92 91 90 89 88 94 93 93 94 93 87 81 77 74 71 67
94 95 98 95 93 95 94 94 95 94 95 95 95 97 97 96 94 94 92 90 90 91 94 94 96 99 95 93 97 96 93 93 97 99 99 99 95 88 83 79 77 71 70
94 95 99 98 98 97 98 98 98 99 100 100 102 100 99 99 98 95 94 92 89 93 100 98 93 96 91 102 99 95 95 105 107 107 104 100 91 90 85 81 76 71 64
96 98 100 101 103 104 105 105 105 105 106 106 104 104 102 100 99 98 96 95 92 89 95 102 92 94 101 100 100 103 105 111 110 112 99 96 94 89 85 82 77 73 72
98 100 103 106 108 110 112 113 113 112 111 111 111 109 107 106 104 103 94 101 94 91 100 102 100 102 100 104 104 109 112 113 110 99 99 96 92 84 83 80 78 77 77
103 109 112 115 118 120 123 125 126 128 130 130 126 123 119 116 112 106 102 98 97 96 95 104 103 103 109 113 115 111 108 102 104 101 97 92 88 84 80 83 84 84 85
122 124 122 118 116 115 114 115 116 115 117 118 118 118 118 116 113 109 106 99 105 101 100 104 108 113 113 107 103 102 101 102 96 98 96 94 92 87 87 94 88 87 82
104 104 101 98 97 96 96 99 102 102 103 103 103 106 109 108 109 110 107 105 105 102 102 103 103 104 105 105 103 100 98 94 95 97 93 88 84 89 92 83 80 80 82
92 89 87 86 84 84 82 79 80 85 88 91 95 93 97 99 98 100 97 95 92 91 91 93 96 96 96 96 96 95 94 90 91 88 84 88 90 84 83 83 84 81 82
79 75 69 60 56 58 58 54 54 55 55 57 63 70 81 93 99 100 98 94 89 86 85 85 84 89 91 90 87 85 84 87 91 84 84 86 83 87 87 86 85 85 88
54 45 37 34 32 36 42 43 41 40 39 39 41 46 56 64 73 78 81 80 79 81 83 82 85 86 79 81 78 78 78 80 82 84 84 89 86 90 90 90 90 92 94
40 35 29 25 25 23 25 24 20 21 20 20 20 23 31 38 46 53 59 64 70 73 75 77 73 70 73 75 77 80 82 84 86 86 84 91 93 95 95 95 95 93 90
30 29 26 25 28 29 29 28 25 23 20 18 14 13 14 18 25 32 37 41 45 51 57 62 68 72 75 79 83 85 86 86 89 91 90 96 100 102 101 91 87 81 78
34 34 29 27 27 26 26 26 26 26 25 24 22 20 21 22 26 30 36 42 47 54 61 68 73 78 82 85 88 91 93 94 97 99 97 99 94 90 86 77 72 68 64
35 33 31 29 29 30 32 33 32 31 29 29 29 30 31 35 38 42 47 51 57 63 69 75 81 85 89 91 94 96 97 100 98 96 88 87 77 70 72 64 58 54 57